Time,TemperatureF,DewpointF,PressureIn,WindDirection,WindDirectionDegrees,WindSpeedMPH,WindSpeedGustMPH,Humidity,HourlyPrecipIn,Conditions,Clouds,dailyrainin,SolarRadiationWatts/m^2,SoftwareType,DateUTC
2013-02-10 00:00:00,14.9,12.5,30.25,North,355,0.0,6.0,90,0.00,,,0.00,0,Wunderground v.1.15,2013-02-10 05:00:00,
2013-02-10 00:02:00,14.9,12.5,30.26,North,355,0.0,6.0,90,0.00,,,0.00,0,Wunderground v.1.15,2013-02-10 05:02:00,
2013-02-10 00:05:00,14.8,12.4,30.26,North,355,0.0,6.0,90,0.00,,,0.00,0,Wunderground v.1.15,2013-02-10 05:05:00,
2013-02-10 00:09:00,14.8,12.4,30.25,North,355,0.0,6.0,90,0.00,,,0.00,0,Wunderground v.1.15,2013-02-10 05:09:00,
2013-02-10 00:12:00,14.8,12.4,30.26,North,355,0.0,6.0,90,0.00,,,0.00,0,Wunderground v.1.15,2013-02-10 05:12:00,
2013-02-10 00:13:00,14.8,12.6,30.26,North,355,0.0,6.0,91,0.00,,,0.00,0,Wunderground v.1.15,2013-02-10 05:13:00,
2013-02-10 00:14:00,14.9,12.7,30.26,North,355,0.0,6.0,91,0.00,,,0.00,0,Wunderground v.1.15,2013-02-10 05:14:00,
2013-02-10 00:16:00,14.9,12.7,30.26,North,355,0.0,6.0,91,0.00,,,0.00,0,Wunderground v.1.15,2013-02-10 05:16:00,
2013-02-10 00:19:00,15.0,12.8,30.26,North,355,0.0,6.0,91,0.00,,,0.00,0,Wunderground v.1.15,2013-02-10 05:19:00,
2013-02-10 00:20:00,15.1,12.9,30.26,North,355,0.0,6.0,91,0.00,,,0.00,0,Wunderground v.1.15,2013-02-10 05:20:00,
2013-02-10 00:23:00,15.2,13.0,30.26,North,355,0.0,6.0,91,0.00,,,0.00,0,Wunderground v.1.15,2013-02-10 05:23:00,
2013-02-10 00:24:00,15.2,13.0,30.26,North,355,0.0,6.0,91,0.00,,,0.00,0,Wunderground v.1.15,2013-02-10 05:24:00,
2013-02-10 00:26:00,15.3,13.1,30.26,North,355,0.0,6.0,91,0.00,,,0.00,0,Wunderground v.1.15,2013-02-10 05:26:00,
2013-02-10 00:28:00,15.4,13.2,30.26,North,355,0.0,6.0,91,0.00,,,0.00,0,Wunderground v.1.15,2013-02-10 05:28:00,
2013-02-10 00:31:00,15.5,13.3,30.26,North,355,0.0,6.0,91,0.00,,,0.00,0,Wunderground v.1.15,2013-02-10 05:31:00,
2013-02-10 00:32:00,15.5,13.3,30.26,North,355,0.0,6.0,91,0.00,,,0.00,0,Wunderground v.1.15,2013-02-10 05:32:00,
2013-02-10 00:34:00,15.6,13.4,30.26,North,355,0.0,6.0,91,0.00,,,0.00,0,Wunderground v.1.15,2013-02-10 05:34:00,
2013-02-10 00:35:00,15.6,13.4,30.26,North,355,0.0,6.0,91,0.00,,,0.00,0,Wunderground v.1.15,2013-02-10 05:35:00,
2013-02-10 00:39:00,15.7,13.5,30.26,North,355,0.0,6.0,91,0.00,,,0.00,0,Wunderground v.1.15,2013-02-10 05:39:00,
2013-02-10 00:40:00,15.7,13.5,30.26,North,355,0.0,6.0,91,0.00,,,0.00,0,Wunderground v.1.15,2013-02-10 05:40:00,
2013-02-10 00:42:00,15.8,13.6,30.26,North,355,0.0,6.0,91,0.00,,,0.00,0,Wunderground v.1.15,2013-02-10 05:42:00,
2013-02-10 00:46:00,15.8,13.6,30.27,North,355,0.0,6.0,91,0.00,,,0.00,0,Wunderground v.1.15,2013-02-10 05:46:00,
2013-02-10 00:47:00,15.8,13.6,30.26,North,355,0.0,6.0,91,0.00,,,0.00,0,Wunderground v.1.15,2013-02-10 05:47:00,
2013-02-10 00:51:00,15.9,13.7,30.26,North,355,0.0,6.0,91,0.00,,,0.00,0,Wunderground v.1.15,2013-02-10 05:51:00,
2013-02-10 00:52:00,15.9,13.7,30.26,North,355,0.0,6.0,91,0.00,,,0.00,0,Wunderground v.1.15,2013-02-10 05:52:00,
2013-02-10 00:53:00,15.9,13.7,30.26,North,355,0.0,6.0,91,0.00,,,0.00,0,Wunderground v.1.15,2013-02-10 05:53:00,
2013-02-10 00:56:00,16.0,13.8,30.26,North,355,0.0,6.0,91,0.00,,,0.00,0,Wunderground v.1.15,2013-02-10 05:56:00,
2013-02-10 00:58:00,16.0,13.8,30.26,North,355,0.0,6.0,91,0.00,,,0.00,0,Wunderground v.1.15,2013-02-10 05:58:00,
2013-02-10 00:59:00,16.1,13.9,30.26,North,355,0.0,6.0,91,0.00,,,0.00,0,Wunderground v.1.15,2013-02-10 05:59:00,
2013-02-10 01:03:00,16.2,14.0,30.26,North,355,0.0,6.0,91,0.00,,,0.00,0,Wunderground v.1.15,2013-02-10 06:03:00,
2013-02-10 01:04:00,16.2,14.0,30.26,North,355,0.0,6.0,91,0.00,,,0.00,0,Wunderground v.1.15,2013-02-10 06:04:00,
2013-02-10 01:09:00,16.3,14.1,30.27,North,355,0.0,6.0,91,0.00,,,0.00,0,Wunderground v.1.15,2013-02-10 06:09:00,
2013-02-10 01:10:00,16.3,14.1,30.27,North,355,0.0,6.0,91,0.00,,,0.00,0,Wunderground v.1.15,2013-02-10 06:10:00,
2013-02-10 01:11:00,16.3,14.1,30.27,North,355,0.0,6.0,91,0.00,,,0.00,0,Wunderground v.1.15,2013-02-10 06:11:00,
2013-02-10 01:13:00,16.3,14.1,30.27,North,355,0.0,6.0,91,0.00,,,0.00,0,Wunderground v.1.15,2013-02-10 06:13:00,
2013-02-10 01:17:00,16.3,14.1,30.27,North,355,0.0,6.0,91,0.00,,,0.00,0,Wunderground v.1.15,2013-02-10 06:17:00,
2013-02-10 01:18:00,16.4,14.2,30.27,North,355,0.0,6.0,91,0.00,,,0.00,0,Wunderground v.1.15,2013-02-10 06:18:00,
2013-02-10 01:19:00,16.4,14.2,30.26,North,355,0.0,6.0,91,0.00,,,0.00,0,Wunderground v.1.15,2013-02-10 06:19:00,
2013-02-10 01:22:00,16.4,14.2,30.26,North,355,0.0,6.0,91,0.00,,,0.00,0,Wunderground v.1.15,2013-02-10 06:22:00,
2013-02-10 01:25:00,16.4,14.2,30.26,North,355,0.0,6.0,91,0.00,,,0.00,0,Wunderground v.1.15,2013-02-10 06:25:00,
2013-02-10 01:27:00,16.4,14.2,30.26,North,355,0.0,6.0,91,0.00,,,0.00,0,Wunderground v.1.15,2013-02-10 06:27:00,
2013-02-10 01:29:00,16.5,14.3,30.26,North,355,0.0,6.0,91,0.00,,,0.00,0,Wunderground v.1.15,2013-02-10 06:29:00,
2013-02-10 01:30:00,16.5,14.3,30.26,North,355,0.0,6.0,91,0.00,,,0.00,0,Wunderground v.1.15,2013-02-10 06:30:00,
2013-02-10 01:32:00,16.6,14.4,30.26,North,355,0.0,6.0,91,0.00,,,0.00,0,Wunderground v.1.15,2013-02-10 06:32:00,
2013-02-10 01:35:00,16.6,14.4,30.26,North,355,0.0,6.0,91,0.00,,,0.00,0,Wunderground v.1.15,2013-02-10 06:35:00,
2013-02-10 01:37:00,16.7,14.5,30.26,North,355,0.0,6.0,91,0.00,,,0.00,0,Wunderground v.1.15,2013-02-10 06:37:00,
2013-02-10 01:40:00,16.8,14.6,30.25,North,355,0.0,6.0,91,0.00,,,0.00,0,Wunderground v.1.15,2013-02-10 06:40:00,
2013-02-10 01:42:00,16.8,14.6,30.25,North,355,0.0,6.0,91,0.00,,,0.00,0,Wunderground v.1.15,2013-02-10 06:42:00,
2013-02-10 01:44:00,16.9,14.7,30.25,North,355,0.0,6.0,91,0.00,,,0.00,0,Wunderground v.1.15,2013-02-10 06:44:00,
2013-02-10 01:45:00,17.0,14.8,30.25,North,355,0.0,6.0,91,0.00,,,0.00,0,Wunderground v.1.15,2013-02-10 06:45:00,
2013-02-10 01:47:00,17.1,14.9,30.25,North,355,0.0,6.0,91,0.00,,,0.00,0,Wunderground v.1.15,2013-02-10 06:47:00,
2013-02-10 01:50:00,17.2,15.0,30.25,North,350,0.0,6.0,91,0.00,,,0.00,0,Wunderground v.1.15,2013-02-10 06:50:00,
2013-02-10 01:53:00,17.3,15.1,30.24,North,350,0.0,6.0,91,0.00,,,0.00,0,Wunderground v.1.15,2013-02-10 06:53:00,
2013-02-10 01:55:00,17.4,15.2,30.24,North,350,0.0,6.0,91,0.00,,,0.00,0,Wunderground v.1.15,2013-02-10 06:55:00,
2013-02-10 01:56:00,17.4,15.2,30.24,North,350,0.0,6.0,91,0.00,,,0.00,0,Wunderground v.1.15,2013-02-10 06:56:00,
2013-02-10 01:57:00,17.5,15.3,30.24,North,9,0.0,6.0,91,0.00,,,0.00,0,Wunderground v.1.15,2013-02-10 06:57:00,
2013-02-10 02:00:00,17.7,15.5,30.24,North,5,0.0,6.0,91,0.00,,,0.00,0,Wunderground v.1.15,2013-02-10 07:00:00,
2013-02-10 02:01:00,17.7,15.5,30.24,NNW,342,0.0,6.0,91,0.00,,,0.00,0,Wunderground v.1.15,2013-02-10 07:01:00,
2013-02-10 02:03:00,17.8,15.6,30.24,North,360,0.0,6.0,91,0.00,,,0.00,0,Wunderground v.1.15,2013-02-10 07:03:00,
2013-02-10 02:06:00,18.0,15.8,30.24,NNE,15,0.0,6.0,91,0.00,,,0.00,0,Wunderground v.1.15,2013-02-10 07:06:00,
2013-02-10 02:08:00,18.1,15.9,30.24,NNE,12,0.0,6.0,91,0.00,,,0.00,0,Wunderground v.1.15,2013-02-10 07:08:00,
2013-02-10 02:11:00,18.3,16.1,30.24,NNE,12,0.0,6.0,91,0.00,,,0.00,0,Wunderground v.1.15,2013-02-10 07:11:00,
2013-02-10 02:12:00,18.3,16.1,30.24,NNE,12,0.0,6.0,91,0.00,,,0.00,0,Wunderground v.1.15,2013-02-10 07:12:00,
2013-02-10 02:14:00,18.4,16.2,30.24,NNE,12,0.0,6.0,91,0.00,,,0.00,0,Wunderground v.1.15,2013-02-10 07:14:00,
2013-02-10 02:17:00,18.6,16.4,30.23,North,355,0.0,6.0,91,0.00,,,0.00,0,Wunderground v.1.15,2013-02-10 07:17:00,
2013-02-10 02:18:00,18.6,16.4,30.24,North,355,0.0,6.0,91,0.00,,,0.00,0,Wunderground v.1.15,2013-02-10 07:18:00,
2013-02-10 02:22:00,18.8,16.6,30.24,North,355,0.0,6.0,91,0.00,,,0.00,0,Wunderground v.1.15,2013-02-10 07:22:00,
2013-02-10 02:23:00,18.8,16.6,30.24,North,355,0.0,6.0,91,0.00,,,0.00,0,Wunderground v.1.15,2013-02-10 07:23:00,
2013-02-10 02:24:00,18.9,16.5,30.23,North,355,0.0,6.0,90,0.00,,,0.00,0,Wunderground v.1.15,2013-02-10 07:24:00,
2013-02-10 02:29:00,19.1,16.7,30.24,North,355,0.0,6.0,90,0.00,,,0.00,0,Wunderground v.1.15,2013-02-10 07:29:00,
2013-02-10 02:30:00,19.1,16.7,30.23,North,355,0.0,6.0,90,0.00,,,0.00,0,Wunderground v.1.15,2013-02-10 07:30:00,
2013-02-10 02:34:00,19.3,16.8,30.24,NW,317,0.0,6.0,90,0.00,,,0.00,0,Wunderground v.1.15,2013-02-10 07:34:00,
2013-02-10 02:35:00,19.3,16.8,30.24,NW,317,0.0,6.0,90,0.00,,,0.00,0,Wunderground v.1.15,2013-02-10 07:35:00,
2013-02-10 02:37:00,19.3,16.8,30.24,NW,317,0.0,6.0,90,0.00,,,0.00,0,Wunderground v.1.15,2013-02-10 07:37:00,
2013-02-10 02:40:00,19.4,16.9,30.24,NW,317,0.0,6.0,90,0.00,,,0.00,0,Wunderground v.1.15,2013-02-10 07:40:00,
2013-02-10 02:44:00,19.4,16.7,30.24,NW,317,0.0,6.0,89,0.00,,,0.00,0,Wunderground v.1.15,2013-02-10 07:44:00,
2013-02-10 02:45:00,19.4,16.7,30.24,NW,318,0.0,6.0,89,0.00,,,0.00,0,Wunderground v.1.15,2013-02-10 07:45:00,
2013-02-10 02:47:00,19.4,16.7,30.24,NW,318,0.0,6.0,89,0.00,,,0.00,0,Wunderground v.1.15,2013-02-10 07:47:00,
2013-02-10 02:50:00,19.4,16.7,30.24,NW,318,0.0,6.0,89,0.00,,,0.00,0,Wunderground v.1.15,2013-02-10 07:50:00,
2013-02-10 02:53:00,19.4,16.7,30.24,NW,318,0.0,6.0,89,0.00,,,0.00,0,Wunderground v.1.15,2013-02-10 07:53:00,
2013-02-10 02:54:00,19.4,16.7,30.24,NW,318,0.0,6.0,89,0.00,,,0.00,0,Wunderground v.1.15,2013-02-10 07:54:00,
2013-02-10 02:55:00,19.4,16.7,30.24,NW,318,0.0,6.0,89,0.00,,,0.00,0,Wunderground v.1.15,2013-02-10 07:55:00,
2013-02-10 02:56:00,19.4,16.7,30.24,NW,318,0.0,6.0,89,0.00,,,0.00,0,Wunderground v.1.15,2013-02-10 07:56:00,
2013-02-10 03:01:00,19.4,16.7,30.24,NW,317,0.0,6.0,89,0.00,,,0.00,0,Wunderground v.1.15,2013-02-10 08:01:00,
2013-02-10 03:02:00,19.4,16.7,30.24,NW,317,0.0,6.0,89,0.00,,,0.00,0,Wunderground v.1.15,2013-02-10 08:02:00,
2013-02-10 03:04:00,19.4,16.7,30.24,NW,317,0.0,6.0,89,0.00,,,0.00,0,Wunderground v.1.15,2013-02-10 08:04:00,
2013-02-10 03:05:00,19.5,16.8,30.24,NW,317,0.0,6.0,89,0.00,,,0.00,0,Wunderground v.1.15,2013-02-10 08:05:00,
2013-02-10 03:08:00,19.5,16.8,30.24,NW,317,0.0,6.0,89,0.00,,,0.00,0,Wunderground v.1.15,2013-02-10 08:08:00,
2013-02-10 03:09:00,19.5,16.8,30.24,NW,317,0.0,6.0,89,0.00,,,0.00,0,Wunderground v.1.15,2013-02-10 08:09:00,
2013-02-10 03:10:00,19.5,16.8,30.24,NW,317,0.0,6.0,89,0.00,,,0.00,0,Wunderground v.1.15,2013-02-10 08:10:00,
2013-02-10 03:11:00,19.5,16.8,30.24,NW,317,0.0,6.0,89,0.00,,,0.00,0,Wunderground v.1.15,2013-02-10 08:11:00,
2013-02-10 03:16:00,19.6,16.9,30.24,NW,318,0.0,6.0,89,0.00,,,0.00,0,Wunderground v.1.15,2013-02-10 08:16:00,
2013-02-10 03:17:00,19.6,16.9,30.24,NW,318,0.0,6.0,89,0.00,,,0.00,0,Wunderground v.1.15,2013-02-10 08:17:00,
2013-02-10 03:18:00,19.7,17.0,30.24,NW,318,0.0,6.0,89,0.00,,,0.00,0,Wunderground v.1.15,2013-02-10 08:18:00,
2013-02-10 03:20:00,19.7,17.0,30.24,NW,318,0.0,6.0,89,0.00,,,0.00,0,Wunderground v.1.15,2013-02-10 08:20:00,
2013-02-10 03:21:00,19.7,17.0,30.24,NW,318,0.0,6.0,89,0.00,,,0.00,0,Wunderground v.1.15,2013-02-10 08:21:00,
2013-02-10 03:24:00,19.8,17.1,30.23,NW,318,0.0,6.0,89,0.00,,,0.00,0,Wunderground v.1.15,2013-02-10 08:24:00,
2013-02-10 03:26:00,19.8,17.1,30.23,NW,318,0.0,6.0,89,0.00,,,0.00,0,Wunderground v.1.15,2013-02-10 08:26:00,
2013-02-10 03:27:00,19.8,17.1,30.23,NW,318,0.0,6.0,89,0.00,,,0.00,0,Wunderground v.1.15,2013-02-10 08:27:00,
2013-02-10 03:30:00,19.8,17.1,30.23,NW,318,0.0,6.0,89,0.00,,,0.00,0,Wunderground v.1.15,2013-02-10 08:30:00,
2013-02-10 03:33:00,19.9,17.2,30.23,NW,318,0.0,6.0,89,0.00,,,0.00,0,Wunderground v.1.15,2013-02-10 08:33:00,
2013-02-10 03:34:00,19.9,17.2,30.23,NW,318,0.0,6.0,89,0.00,,,0.00,0,Wunderground v.1.15,2013-02-10 08:34:00,
2013-02-10 03:37:00,20.0,17.3,30.23,NW,318,0.0,6.0,89,0.00,,,0.00,0,Wunderground v.1.15,2013-02-10 08:37:00,
2013-02-10 03:40:00,20.0,17.3,30.22,NW,318,0.0,6.0,89,0.00,,,0.00,0,Wunderground v.1.15,2013-02-10 08:40:00,
2013-02-10 03:42:00,20.0,17.3,30.22,NW,324,0.0,6.0,89,0.00,,,0.00,0,Wunderground v.1.15,2013-02-10 08:42:00,
2013-02-10 03:45:00,20.0,17.3,30.22,NNW,331,0.0,6.0,89,0.00,,,0.00,0,Wunderground v.1.15,2013-02-10 08:45:00,
2013-02-10 03:46:00,20.1,17.4,30.22,NNW,331,0.0,6.0,89,0.00,,,0.00,0,Wunderground v.1.15,2013-02-10 08:46:00,
2013-02-10 03:47:00,20.1,17.4,30.22,NNW,331,0.0,6.0,89,0.00,,,0.00,0,Wunderground v.1.15,2013-02-10 08:47:00,
2013-02-10 03:48:00,20.1,17.4,30.22,NNW,331,0.0,6.0,89,0.00,,,0.00,0,Wunderground v.1.15,2013-02-10 08:48:00,
2013-02-10 03:54:00,20.1,17.4,30.21,NNW,348,0.0,6.0,89,0.00,,,0.00,0,Wunderground v.1.15,2013-02-10 08:54:00,
2013-02-10 03:55:00,20.1,17.4,30.21,NNW,348,0.0,6.0,89,0.00,,,0.00,0,Wunderground v.1.15,2013-02-10 08:55:00,
2013-02-10 03:56:00,20.1,17.4,30.21,NNW,348,0.0,6.0,89,0.00,,,0.00,0,Wunderground v.1.15,2013-02-10 08:56:00,
2013-02-10 03:59:00,20.2,17.5,30.21,North,360,0.0,6.0,89,0.00,,,0.00,0,Wunderground v.1.15,2013-02-10 08:59:00,
2013-02-10 04:01:00,20.2,17.5,30.21,North,360,0.0,6.0,89,0.00,,,0.00,0,Wunderground v.1.15,2013-02-10 09:01:00,
2013-02-10 04:02:00,20.2,17.5,30.22,North,360,0.0,6.0,89,0.00,,,0.00,0,Wunderground v.1.15,2013-02-10 09:02:00,
2013-02-10 04:04:00,20.2,17.5,30.22,North,360,0.0,6.0,89,0.00,,,0.00,0,Wunderground v.1.15,2013-02-10 09:04:00,
2013-02-10 04:05:00,20.2,17.5,30.21,North,360,0.0,6.0,89,0.00,,,0.00,0,Wunderground v.1.15,2013-02-10 09:05:00,
2013-02-10 04:09:00,20.3,17.6,30.21,NNW,348,0.0,6.0,89,0.00,,,0.00,0,Wunderground v.1.15,2013-02-10 09:09:00,
2013-02-10 04:10:00,20.3,17.6,30.21,NNW,348,0.0,6.0,89,0.00,,,0.00,0,Wunderground v.1.15,2013-02-10 09:10:00,
2013-02-10 04:13:00,20.4,17.7,30.21,NNW,348,0.0,6.0,89,0.00,,,0.00,0,Wunderground v.1.15,2013-02-10 09:13:00,
2013-02-10 04:14:00,20.4,17.7,30.21,NNW,342,0.0,6.0,89,0.00,,,0.00,0,Wunderground v.1.15,2013-02-10 09:14:00,
2013-02-10 04:16:00,20.4,17.7,30.21,NNW,342,0.0,6.0,89,0.00,,,0.00,0,Wunderground v.1.15,2013-02-10 09:16:00,
2013-02-10 04:19:00,20.5,17.8,30.21,NW,326,0.0,6.0,89,0.00,,,0.00,0,Wunderground v.1.15,2013-02-10 09:19:00,
2013-02-10 04:20:00,20.5,17.8,30.21,NW,326,0.0,6.0,89,0.00,,,0.00,0,Wunderground v.1.15,2013-02-10 09:20:00,
2013-02-10 04:22:00,20.5,17.8,30.21,NW,326,0.0,6.0,89,0.00,,,0.00,0,Wunderground v.1.15,2013-02-10 09:22:00,
2013-02-10 04:25:00,20.6,17.9,30.21,NW,312,0.0,6.0,89,0.00,,,0.00,0,Wunderground v.1.15,2013-02-10 09:25:00,
2013-02-10 04:26:00,20.6,17.9,30.21,NW,317,0.0,6.0,89,0.00,,,0.00,0,Wunderground v.1.15,2013-02-10 09:26:00,
2013-02-10 04:27:00,20.6,17.6,30.21,NW,311,0.0,6.0,88,0.00,,,0.00,0,Wunderground v.1.15,2013-02-10 09:27:00,
2013-02-10 04:31:00,20.7,18.0,30.21,NW,311,0.0,6.0,89,0.00,,,0.00,0,Wunderground v.1.15,2013-02-10 09:31:00,
2013-02-10 04:33:00,20.7,18.0,30.21,NW,311,0.0,6.0,89,0.00,,,0.00,0,Wunderground v.1.15,2013-02-10 09:33:00,
2013-02-10 04:34:00,20.7,18.0,30.21,NW,311,0.0,6.0,89,0.00,,,0.00,0,Wunderground v.1.15,2013-02-10 09:34:00,
2013-02-10 04:36:00,20.7,18.0,30.21,NW,311,0.0,6.0,89,0.00,,,0.00,0,Wunderground v.1.15,2013-02-10 09:36:00,
2013-02-10 04:39:00,20.8,18.1,30.21,North,351,0.0,6.0,89,0.00,,,0.00,0,Wunderground v.1.15,2013-02-10 09:39:00,
2013-02-10 04:44:00,20.8,18.1,30.21,North,351,0.0,6.0,89,0.00,,,0.00,0,Wunderground v.1.15,2013-02-10 09:44:00,
2013-02-10 04:45:00,20.8,18.1,30.20,North,351,0.0,6.0,89,0.00,,,0.00,0,Wunderground v.1.15,2013-02-10 09:45:00,
2013-02-10 04:46:00,20.8,17.8,30.20,North,351,0.0,6.0,88,0.00,,,0.00,0,Wunderground v.1.15,2013-02-10 09:46:00,
2013-02-10 04:48:00,20.8,17.8,30.20,North,351,0.0,6.0,88,0.00,,,0.00,0,Wunderground v.1.15,2013-02-10 09:48:00,
2013-02-10 04:51:00,20.9,17.9,30.21,North,349,1.0,6.0,88,0.00,,,0.00,0,Wunderground v.1.15,2013-02-10 09:51:00,
2013-02-10 04:52:00,20.9,17.9,30.21,North,350,1.0,6.0,88,0.00,,,0.00,0,Wunderground v.1.15,2013-02-10 09:52:00,
2013-02-10 04:53:00,20.9,17.9,30.21,NNE,13,1.0,6.0,88,0.00,,,0.00,0,Wunderground v.1.15,2013-02-10 09:53:00,
2013-02-10 04:58:00,20.9,17.9,30.21,NNE,13,1.0,6.0,88,0.00,,,0.00,0,Wunderground v.1.15,2013-02-10 09:58:00,
2013-02-10 04:59:00,20.9,17.9,30.21,NNE,13,1.0,6.0,88,0.00,,,0.00,0,Wunderground v.1.15,2013-02-10 09:59:00,
2013-02-10 05:01:00,20.9,17.9,30.20,NNE,13,0.0,6.0,88,0.00,,,0.00,0,Wunderground v.1.15,2013-02-10 10:01:00,
2013-02-10 05:03:00,21.0,18.0,30.20,NNW,329,0.0,6.0,88,0.00,,,0.00,0,Wunderground v.1.15,2013-02-10 10:03:00,
2013-02-10 05:04:00,21.0,18.0,30.21,NNW,329,0.0,6.0,88,0.00,,,0.00,0,Wunderground v.1.15,2013-02-10 10:04:00,
2013-02-10 05:07:00,21.0,18.0,30.20,NNW,329,0.0,6.0,88,0.00,,,0.00,0,Wunderground v.1.15,2013-02-10 10:07:00,
2013-02-10 05:10:00,21.1,18.1,30.20,NNW,329,0.0,6.0,88,0.00,,,0.00,0,Wunderground v.1.15,2013-02-10 10:10:00,
2013-02-10 05:13:00,21.1,18.1,30.21,NNW,329,0.0,6.0,88,0.00,,,0.00,0,Wunderground v.1.15,2013-02-10 10:13:00,
2013-02-10 05:15:00,21.1,18.1,30.20,NNW,329,0.0,6.0,88,0.00,,,0.00,0,Wunderground v.1.15,2013-02-10 10:15:00,
2013-02-10 05:16:00,21.2,18.2,30.20,NNW,329,0.0,6.0,88,0.00,,,0.00,0,Wunderground v.1.15,2013-02-10 10:16:00,
2013-02-10 05:18:00,21.2,18.2,30.20,NNW,329,0.0,6.0,88,0.00,,,0.00,0,Wunderground v.1.15,2013-02-10 10:18:00,
2013-02-10 05:22:00,21.2,18.2,30.21,NNW,329,0.0,6.0,88,0.00,,,0.00,0,Wunderground v.1.15,2013-02-10 10:22:00,
2013-02-10 05:23:00,21.2,18.2,30.21,NNW,329,0.0,6.0,88,0.00,,,0.00,0,Wunderground v.1.15,2013-02-10 10:23:00,
2013-02-10 05:28:00,21.3,18.3,30.21,NNW,329,0.0,6.0,88,0.00,,,0.00,0,Wunderground v.1.15,2013-02-10 10:28:00,
2013-02-10 05:29:00,21.3,18.3,30.21,NNW,329,0.0,6.0,88,0.00,,,0.00,0,Wunderground v.1.15,2013-02-10 10:29:00,
2013-02-10 05:30:00,21.3,18.3,30.21,NNW,329,0.0,6.0,88,0.00,,,0.00,0,Wunderground v.1.15,2013-02-10 10:30:00,
2013-02-10 05:32:00,21.3,18.3,30.21,NNW,329,0.0,6.0,88,0.00,,,0.00,0,Wunderground v.1.15,2013-02-10 10:32:00,
2013-02-10 05:35:00,21.4,18.4,30.21,NNW,329,0.0,6.0,88,0.00,,,0.00,0,Wunderground v.1.15,2013-02-10 10:35:00,
2013-02-10 05:37:00,21.4,18.4,30.21,NNW,329,0.0,6.0,88,0.00,,,0.00,0,Wunderground v.1.15,2013-02-10 10:37:00,
2013-02-10 05:38:00,21.4,18.4,30.21,NNW,329,0.0,6.0,88,0.00,,,0.00,0,Wunderground v.1.15,2013-02-10 10:38:00,
2013-02-10 05:43:00,21.5,18.5,30.21,NNW,329,0.0,6.0,88,0.00,,,0.00,0,Wunderground v.1.15,2013-02-10 10:43:00,
2013-02-10 05:44:00,21.5,18.5,30.21,NNW,337,0.0,6.0,88,0.00,,,0.00,0,Wunderground v.1.15,2013-02-10 10:44:00,
2013-02-10 05:45:00,21.5,18.5,30.21,NNW,337,0.0,6.0,88,0.00,,,0.00,0,Wunderground v.1.15,2013-02-10 10:45:00,
2013-02-10 05:48:00,21.6,18.6,30.21,North,5,1.0,6.0,88,0.00,,,0.00,0,Wunderground v.1.15,2013-02-10 10:48:00,
2013-02-10 05:50:00,21.6,18.6,30.21,North,5,0.0,6.0,88,0.00,,,0.00,0,Wunderground v.1.15,2013-02-10 10:50:00,
2013-02-10 05:51:00,21.6,18.6,30.21,NNE,16,0.0,6.0,88,0.00,,,0.00,0,Wunderground v.1.15,2013-02-10 10:51:00,
2013-02-10 05:56:00,21.6,18.6,30.21,North,5,0.0,6.0,88,0.00,,,0.00,0,Wunderground v.1.15,2013-02-10 10:56:00,
2013-02-10 05:58:00,21.6,18.6,30.21,North,5,0.0,6.0,88,0.00,,,0.00,0,Wunderground v.1.15,2013-02-10 10:58:00,
2013-02-10 05:59:00,21.6,18.6,30.21,North,5,0.0,6.0,88,0.00,,,0.00,0,Wunderground v.1.15,2013-02-10 10:59:00,
2013-02-10 06:05:00,21.7,18.7,30.21,North,355,0.0,6.0,88,0.00,,,0.00,0,Wunderground v.1.15,2013-02-10 11:05:00,
2013-02-10 06:06:00,21.7,18.7,30.21,North,355,0.0,6.0,88,0.00,,,0.00,0,Wunderground v.1.15,2013-02-10 11:06:00,
2013-02-10 06:08:00,21.7,18.7,30.21,North,355,0.0,6.0,88,0.00,,,0.00,0,Wunderground v.1.15,2013-02-10 11:08:00,
2013-02-10 06:09:00,21.7,18.7,30.21,North,355,0.0,6.0,88,0.00,,,0.00,0,Wunderground v.1.15,2013-02-10 11:09:00,
2013-02-10 06:10:00,21.7,18.7,30.21,North,355,0.0,6.0,88,0.00,,,0.00,0,Wunderground v.1.15,2013-02-10 11:10:00,
2013-02-10 06:11:00,21.7,18.7,30.21,North,355,0.0,6.0,88,0.00,,,0.00,0,Wunderground v.1.15,2013-02-10 11:11:00,
2013-02-10 06:14:00,21.8,18.8,30.21,North,355,0.0,6.0,88,0.00,,,0.00,0,Wunderground v.1.15,2013-02-10 11:14:00,
2013-02-10 06:15:00,21.8,18.8,30.21,North,355,0.0,6.0,88,0.00,,,0.00,0,Wunderground v.1.15,2013-02-10 11:15:00,
2013-02-10 06:17:00,21.8,18.8,30.21,North,355,0.0,6.0,88,0.00,,,0.00,0,Wunderground v.1.15,2013-02-10 11:17:00,
2013-02-10 06:19:00,21.8,18.8,30.21,North,355,0.0,6.0,88,0.00,,,0.00,0,Wunderground v.1.15,2013-02-10 11:19:00,
2013-02-10 06:23:00,21.8,18.8,30.20,North,355,0.0,6.0,88,0.00,,,0.00,0,Wunderground v.1.15,2013-02-10 11:23:00,
2013-02-10 06:24:00,21.8,18.8,30.20,North,355,0.0,6.0,88,0.00,,,0.00,0,Wunderground v.1.15,2013-02-10 11:24:00,
2013-02-10 06:26:00,21.8,18.8,30.20,North,355,0.0,6.0,88,0.00,,,0.00,0,Wunderground v.1.15,2013-02-10 11:26:00,
2013-02-10 06:28:00,21.9,18.9,30.20,North,355,0.0,6.0,88,0.00,,,0.00,0,Wunderground v.1.15,2013-02-10 11:28:00,
2013-02-10 06:29:00,21.9,18.9,30.20,North,355,0.0,6.0,88,0.00,,,0.00,0,Wunderground v.1.15,2013-02-10 11:29:00,
2013-02-10 06:31:00,21.9,18.9,30.21,North,355,0.0,6.0,88,0.00,,,0.00,0,Wunderground v.1.15,2013-02-10 11:31:00,
2013-02-10 06:34:00,21.9,18.9,30.21,North,355,0.0,6.0,88,0.00,,,0.00,0,Wunderground v.1.15,2013-02-10 11:34:00,
2013-02-10 06:35:00,21.9,18.9,30.21,North,355,0.0,6.0,88,0.00,,,0.00,0,Wunderground v.1.15,2013-02-10 11:35:00,
2013-02-10 06:37:00,21.9,18.9,30.21,North,355,0.0,6.0,88,0.00,,,0.00,0,Wunderground v.1.15,2013-02-10 11:37:00,
2013-02-10 06:40:00,22.0,19.0,30.21,North,355,0.0,6.0,88,0.00,,,0.00,0,Wunderground v.1.15,2013-02-10 11:40:00,
2013-02-10 06:41:00,22.0,19.0,30.21,North,355,0.0,6.0,88,0.00,,,0.00,0,Wunderground v.1.15,2013-02-10 11:41:00,
2013-02-10 06:46:00,22.0,19.0,30.21,North,355,0.0,6.0,88,0.00,,,0.00,0,Wunderground v.1.15,2013-02-10 11:46:00,
2013-02-10 06:47:00,22.0,19.0,30.20,North,355,0.0,6.0,88,0.00,,,0.00,0,Wunderground v.1.15,2013-02-10 11:47:00,
2013-02-10 06:51:00,22.0,19.3,30.20,North,355,0.0,6.0,89,0.00,,,0.00,0,Wunderground v.1.15,2013-02-10 11:51:00,
2013-02-10 06:53:00,22.1,19.4,30.21,North,355,0.0,6.0,89,0.00,,,0.00,0,Wunderground v.1.15,2013-02-10 11:53:00,
2013-02-10 06:55:00,22.1,19.1,30.20,North,355,1.0,6.0,88,0.00,,,0.00,0,Wunderground v.1.15,2013-02-10 11:55:00,
2013-02-10 06:57:00,22.1,19.1,30.20,North,355,1.0,6.0,88,0.00,,,0.00,0,Wunderground v.1.15,2013-02-10 11:57:00,
2013-02-10 06:59:00,22.1,19.1,30.20,North,355,0.0,6.0,88,0.00,,,0.00,0,Wunderground v.1.15,2013-02-10 11:59:00,
2013-02-10 07:00:00,22.1,19.1,30.20,North,355,0.0,6.0,88,0.00,,,0.00,0,Wunderground v.1.15,2013-02-10 12:00:00,
2013-02-10 07:01:00,22.1,19.4,30.20,North,355,0.0,6.0,89,0.00,,,0.00,0,Wunderground v.1.15,2013-02-10 12:01:00,
2013-02-10 07:05:00,22.2,19.5,30.20,North,5,0.0,6.0,89,0.00,,,0.00,0,Wunderground v.1.15,2013-02-10 12:05:00,
2013-02-10 07:07:00,22.2,19.2,30.20,North,360,1.0,6.0,88,0.00,,,0.00,0,Wunderground v.1.15,2013-02-10 12:07:00,
2013-02-10 07:10:00,22.2,19.2,30.20,North,5,1.0,6.0,88,0.00,,,0.00,0,Wunderground v.1.15,2013-02-10 12:10:00,
2013-02-10 07:11:00,22.2,19.2,30.20,North,5,1.0,6.0,88,0.00,,,0.00,0,Wunderground v.1.15,2013-02-10 12:11:00,
2013-02-10 07:15:00,22.2,19.2,30.20,North,5,1.0,6.0,88,0.00,,,0.00,0,Wunderground v.1.15,2013-02-10 12:15:00,
2013-02-10 07:17:00,22.3,19.3,30.20,North,5,1.0,6.0,88,0.00,,,0.00,0,Wunderground v.1.15,2013-02-10 12:17:00,
2013-02-10 07:22:00,22.3,19.3,30.20,North,5,1.0,6.0,88,0.00,,,0.00,0,Wunderground v.1.15,2013-02-10 12:22:00,
2013-02-10 07:23:00,22.3,19.3,30.20,North,5,1.0,6.0,88,0.00,,,0.00,0,Wunderground v.1.15,2013-02-10 12:23:00,
2013-02-10 07:28:00,22.4,19.4,30.20,North,5,1.0,6.0,88,0.00,,,0.00,0,Wunderground v.1.15,2013-02-10 12:28:00,
2013-02-10 07:31:00,22.4,19.6,30.20,North,5,0.0,6.0,89,0.00,,,0.00,0,Wunderground v.1.15,2013-02-10 12:31:00,
2013-02-10 07:32:00,22.4,19.4,30.20,North,5,0.0,6.0,88,0.00,,,0.00,0,Wunderground v.1.15,2013-02-10 12:32:00,
2013-02-10 07:37:00,22.4,19.6,30.20,North,5,1.0,6.0,89,0.00,,,0.00,0,Wunderground v.1.15,2013-02-10 12:37:00,
2013-02-10 07:38:00,22.5,19.5,30.20,North,360,1.0,6.0,88,0.00,,,0.00,0,Wunderground v.1.15,2013-02-10 12:38:00,
2013-02-10 07:41:00,22.5,19.5,30.20,NNE,17,1.0,6.0,88,0.00,,,0.00,0,Wunderground v.1.15,2013-02-10 12:41:00,
2013-02-10 07:44:00,22.5,19.5,30.20,NNE,17,1.0,6.0,88,0.00,,,0.00,0,Wunderground v.1.15,2013-02-10 12:44:00,
2013-02-10 07:46:00,22.5,19.5,30.21,North,355,1.0,6.0,88,0.00,,,0.00,0,Wunderground v.1.15,2013-02-10 12:46:00,
2013-02-10 07:47:00,22.5,19.5,30.21,North,355,0.0,6.0,88,0.00,,,0.00,0,Wunderground v.1.15,2013-02-10 12:47:00,
2013-02-10 07:52:00,22.5,19.5,30.21,North,355,0.0,6.0,88,0.00,,,0.00,0,Wunderground v.1.15,2013-02-10 12:52:00,
2013-02-10 07:54:00,22.5,19.5,30.21,North,355,0.0,6.0,88,0.00,,,0.00,0,Wunderground v.1.15,2013-02-10 12:54:00,
2013-02-10 07:58:00,22.6,19.6,30.21,NNW,348,0.0,6.0,88,0.00,,,0.00,0,Wunderground v.1.15,2013-02-10 12:58:00,
2013-02-10 08:00:00,22.6,19.6,30.21,North,360,0.0,6.0,88,0.00,,,0.00,0,Wunderground v.1.15,2013-02-10 13:00:00,
2013-02-10 08:03:00,22.6,19.6,30.21,North,355,1.0,6.0,88,0.00,,,0.00,0,Wunderground v.1.15,2013-02-10 13:03:00,
2013-02-10 08:06:00,22.6,19.6,30.21,North,355,1.0,6.0,88,0.00,,,0.00,5,Wunderground v.1.15,2013-02-10 13:06:00,
2013-02-10 08:07:00,22.6,19.6,30.21,North,355,1.0,6.0,88,0.00,,,0.00,5,Wunderground v.1.15,2013-02-10 13:07:00,
2013-02-10 08:10:00,22.7,19.7,30.20,North,355,1.0,1.0,88,0.00,,,0.00,5,Wunderground v.1.15,2013-02-10 13:10:00,
2013-02-10 08:11:00,22.6,19.6,30.20,North,355,1.0,6.0,88,0.00,,,0.00,5,Wunderground v.1.15,2013-02-10 13:11:00,
2013-02-10 08:12:00,22.7,19.7,30.20,North,355,1.0,6.0,88,0.00,,,0.00,7,Wunderground v.1.15,2013-02-10 13:12:00,
2013-02-10 08:17:00,22.7,19.7,30.20,North,5,1.0,6.0,88,0.00,,,0.00,9,Wunderground v.1.15,2013-02-10 13:17:00,
2013-02-10 08:18:00,22.7,19.7,30.20,North,5,1.0,6.0,88,0.00,,,0.00,9,Wunderground v.1.15,2013-02-10 13:18:00,
2013-02-10 08:19:00,22.7,19.7,30.20,North,5,1.0,6.0,88,0.00,,,0.00,9,Wunderground v.1.15,2013-02-10 13:19:00,
2013-02-10 08:23:00,22.7,19.7,30.21,NNW,331,1.0,6.0,88,0.00,,,0.00,11,Wunderground v.1.15,2013-02-10 13:23:00,
2013-02-10 08:25:00,22.8,19.8,30.21,NNW,331,1.0,6.0,88,0.00,,,0.00,11,Wunderground v.1.15,2013-02-10 13:25:00,
2013-02-10 08:27:00,22.8,19.8,30.20,North,360,0.0,6.0,88,0.00,,,0.00,11,Wunderground v.1.15,2013-02-10 13:27:00,
2013-02-10 08:30:00,22.8,19.8,30.20,NNE,21,1.0,1.0,88,0.00,,,0.00,12,Wunderground v.1.15,2013-02-10 13:30:00,
2013-02-10 08:31:00,22.8,19.8,30.20,NNE,21,1.0,2.0,88,0.00,,,0.00,14,Wunderground v.1.15,2013-02-10 13:31:00,
2013-02-10 08:34:00,22.8,19.8,30.20,North,5,1.0,6.0,88,0.00,,,0.00,16,Wunderground v.1.15,2013-02-10 13:34:00,
2013-02-10 08:37:00,22.9,19.9,30.19,North,355,1.0,6.0,88,0.00,,,0.00,16,Wunderground v.1.15,2013-02-10 13:37:00,
2013-02-10 08:39:00,22.9,19.9,30.19,North,355,1.0,6.0,88,0.00,,,0.00,16,Wunderground v.1.15,2013-02-10 13:39:00,
2013-02-10 08:40:00,22.9,19.9,30.19,North,355,1.0,6.0,88,0.00,,,0.00,16,Wunderground v.1.15,2013-02-10 13:40:00,
2013-02-10 08:41:00,22.9,19.9,30.19,North,355,1.0,6.0,88,0.00,,,0.00,18,Wunderground v.1.15,2013-02-10 13:41:00,
2013-02-10 08:46:00,22.9,19.9,30.19,North,355,2.0,6.0,88,0.00,,,0.00,19,Wunderground v.1.15,2013-02-10 13:46:00,
2013-02-10 08:47:00,22.9,19.9,30.18,North,5,2.0,6.0,88,0.00,,,0.00,21,Wunderground v.1.15,2013-02-10 13:47:00,
2013-02-10 08:53:00,23.0,20.0,30.19,North,360,2.0,6.0,88,0.00,,,0.00,25,Wunderground v.1.15,2013-02-10 13:53:00,
2013-02-10 08:54:00,23.0,20.0,30.19,North,5,2.0,6.0,88,0.00,,,0.00,28,Wunderground v.1.15,2013-02-10 13:54:00,
2013-02-10 08:55:00,23.0,20.0,30.19,NNE,18,2.0,6.0,88,0.00,,,0.00,28,Wunderground v.1.15,2013-02-10 13:55:00,
2013-02-10 08:58:00,23.0,20.0,30.19,NNE,17,2.0,6.0,88,0.00,,,0.00,26,Wunderground v.1.15,2013-02-10 13:58:00,
2013-02-10 09:00:00,23.0,20.0,30.18,NNW,348,2.0,6.0,88,0.00,,,0.00,28,Wunderground v.1.15,2013-02-10 14:00:00,
2013-02-10 09:03:00,23.1,20.1,30.18,NNW,336,2.0,6.0,88,0.00,,,0.00,28,Wunderground v.1.15,2013-02-10 14:03:00,
2013-02-10 09:05:00,23.1,20.1,30.18,North,5,2.0,6.0,88,0.00,,,0.00,26,Wunderground v.1.15,2013-02-10 14:05:00,
2013-02-10 09:06:00,23.1,20.1,30.18,North,355,2.0,6.0,88,0.00,,,0.00,26,Wunderground v.1.15,2013-02-10 14:06:00,
2013-02-10 09:11:00,23.2,20.4,30.18,NNW,337,2.0,6.0,89,0.00,,,0.00,26,Wunderground v.1.15,2013-02-10 14:11:00,
2013-02-10 09:12:00,23.2,20.4,30.18,NW,307,2.0,6.0,89,0.00,,,0.00,28,Wunderground v.1.15,2013-02-10 14:12:00,
2013-02-10 09:15:00,23.3,20.5,30.18,NNW,333,3.0,6.0,89,0.00,,,0.00,40,Wunderground v.1.15,2013-02-10 14:15:00,
2013-02-10 09:18:00,23.3,20.5,30.18,North,11,2.0,6.0,89,0.00,,,0.00,54,Wunderground v.1.15,2013-02-10 14:18:00,
2013-02-10 09:22:00,23.4,20.6,30.17,NNW,346,2.0,6.0,89,0.00,,,0.00,67,Wunderground v.1.15,2013-02-10 14:22:00,
2013-02-10 09:23:00,23.4,20.6,30.17,NNW,333,2.0,6.0,89,0.00,,,0.00,67,Wunderground v.1.15,2013-02-10 14:23:00,
2013-02-10 09:26:00,23.5,20.5,30.17,North,351,2.0,6.0,88,0.00,,,0.00,72,Wunderground v.1.15,2013-02-10 14:26:00,
2013-02-10 09:27:00,23.5,20.5,30.17,NNW,344,2.0,6.0,88,0.00,,,0.00,69,Wunderground v.1.15,2013-02-10 14:27:00,
2013-02-10 09:32:00,23.6,20.6,30.17,North,355,2.0,6.0,88,0.00,,,0.00,60,Wunderground v.1.15,2013-02-10 14:32:00,
2013-02-10 09:34:00,23.7,20.7,30.17,NNW,347,2.0,6.0,88,0.00,,,0.00,77,Wunderground v.1.15,2013-02-10 14:34:00,
2013-02-10 09:35:00,23.6,20.6,30.17,North,355,2.0,6.0,88,0.00,,,0.00,79,Wunderground v.1.15,2013-02-10 14:35:00,
2013-02-10 09:36:00,23.7,20.7,30.17,North,355,2.0,6.0,88,0.00,,,0.00,76,Wunderground v.1.15,2013-02-10 14:36:00,
2013-02-10 09:38:00,23.8,20.8,30.17,NNW,345,2.0,6.0,88,0.00,,,0.00,79,Wunderground v.1.15,2013-02-10 14:38:00,
2013-02-10 09:41:00,23.8,20.8,30.17,North,9,2.0,6.0,88,0.00,,,0.00,97,Wunderground v.1.15,2013-02-10 14:41:00,
2013-02-10 09:44:00,23.9,20.9,30.16,North,355,3.0,6.0,88,0.00,,,0.00,100,Wunderground v.1.15,2013-02-10 14:44:00,
2013-02-10 09:49:00,24.0,21.0,30.16,North,360,3.0,6.0,88,0.00,,,0.00,98,Wunderground v.1.15,2013-02-10 14:49:00,
2013-02-10 09:51:00,24.1,21.1,30.16,North,350,3.0,6.0,88,0.00,,,0.00,88,Wunderground v.1.15,2013-02-10 14:51:00,
2013-02-10 09:52:00,24.1,21.1,30.16,North,5,3.0,6.0,88,0.00,,,0.00,84,Wunderground v.1.15,2013-02-10 14:52:00,
2013-02-10 09:53:00,24.2,21.2,30.16,NNW,335,3.0,6.0,88,0.00,,,0.00,91,Wunderground v.1.15,2013-02-10 14:53:00,
2013-02-10 09:56:00,24.3,21.3,30.16,North,360,3.0,6.0,88,0.00,,,0.00,105,Wunderground v.1.15,2013-02-10 14:56:00,
2013-02-10 09:58:00,24.3,21.3,30.16,North,360,3.0,6.0,88,0.00,,,0.00,107,Wunderground v.1.15,2013-02-10 14:58:00,
2013-02-10 09:59:00,24.3,21.3,30.16,North,350,3.0,6.0,88,0.00,,,0.00,107,Wunderground v.1.15,2013-02-10 14:59:00,
2013-02-10 10:00:00,24.4,21.4,30.16,NNW,346,3.0,3.0,88,0.00,,,0.00,111,Wunderground v.1.15,2013-02-10 15:00:00,
2013-02-10 10:02:00,24.4,21.4,30.15,North,355,3.0,6.0,88,0.00,,,0.00,113,Wunderground v.1.15,2013-02-10 15:02:00,
2013-02-10 10:03:00,24.4,21.4,30.15,North,351,3.0,6.0,88,0.00,,,0.00,114,Wunderground v.1.15,2013-02-10 15:03:00,
2013-02-10 10:05:00,24.5,21.5,30.15,NNW,342,4.0,6.0,88,0.00,,,0.00,125,Wunderground v.1.15,2013-02-10 15:05:00,
2013-02-10 10:07:00,24.5,21.5,30.15,NNE,26,3.0,6.0,88,0.00,,,0.00,128,Wunderground v.1.15,2013-02-10 15:07:00,
2013-02-10 10:09:00,24.6,21.6,30.15,NNW,344,3.0,6.0,88,0.00,,,0.00,130,Wunderground v.1.15,2013-02-10 15:09:00,
2013-02-10 10:11:00,24.7,21.7,30.15,NNW,342,3.0,6.0,88,0.00,,,0.00,141,Wunderground v.1.15,2013-02-10 15:11:00,
2013-02-10 10:12:00,24.7,21.7,30.15,NNW,344,3.0,6.0,88,0.00,,,0.00,148,Wunderground v.1.15,2013-02-10 15:12:00,
2013-02-10 10:16:00,24.9,21.8,30.15,North,360,3.0,6.0,88,0.00,,,0.00,139,Wunderground v.1.15,2013-02-10 15:16:00,
2013-02-10 10:17:00,24.9,21.8,30.15,NNW,335,4.0,6.0,88,0.00,,,0.00,134,Wunderground v.1.15,2013-02-10 15:17:00,
2013-02-10 10:20:00,25.0,21.9,30.15,NNW,346,3.0,6.0,88,0.00,,,0.00,142,Wunderground v.1.15,2013-02-10 15:20:00,
2013-02-10 10:21:00,25.1,22.0,30.15,NNE,14,3.0,6.0,88,0.00,,,0.00,139,Wunderground v.1.15,2013-02-10 15:21:00,
2013-02-10 10:22:00,25.1,22.0,30.14,North,360,3.0,6.0,88,0.00,,,0.00,144,Wunderground v.1.15,2013-02-10 15:22:00,
2013-02-10 10:24:00,25.2,22.1,30.15,NNW,337,3.0,6.0,88,0.00,,,0.00,144,Wunderground v.1.15,2013-02-10 15:24:00,
2013-02-10 10:26:00,25.2,22.1,30.15,NNE,14,3.0,6.0,88,0.00,,,0.00,146,Wunderground v.1.15,2013-02-10 15:26:00,
2013-02-10 10:30:00,25.4,22.3,30.14,NNW,340,2.0,2.0,88,0.00,,,0.00,153,Wunderground v.1.15,2013-02-10 15:30:00,
2013-02-10 10:32:00,25.5,22.4,30.14,NNE,20,2.0,6.0,88,0.00,,,0.00,158,Wunderground v.1.15,2013-02-10 15:32:00,
2013-02-10 10:36:00,25.7,22.6,30.14,North,5,3.0,6.0,88,0.00,,,0.00,160,Wunderground v.1.15,2013-02-10 15:36:00,
2013-02-10 10:37:00,25.7,22.6,30.14,NNE,14,2.0,6.0,88,0.00,,,0.00,156,Wunderground v.1.15,2013-02-10 15:37:00,
2013-02-10 10:42:00,25.8,22.7,30.13,NE,42,2.0,6.0,88,0.00,,,0.00,171,Wunderground v.1.15,2013-02-10 15:42:00,
2013-02-10 10:43:00,25.9,22.8,30.13,NNW,337,3.0,7.0,88,0.00,,,0.00,172,Wunderground v.1.15,2013-02-10 15:43:00,
2013-02-10 10:48:00,26.1,23.0,30.12,North,355,3.0,7.0,88,0.00,,,0.00,181,Wunderground v.1.15,2013-02-10 15:48:00,
2013-02-10 10:49:00,26.0,22.9,30.12,NNW,346,3.0,7.0,88,0.00,,,0.00,183,Wunderground v.1.15,2013-02-10 15:49:00,
2013-02-10 10:53:00,26.2,23.1,30.12,North,351,3.0,6.0,88,0.00,,,0.00,179,Wunderground v.1.15,2013-02-10 15:53:00,
2013-02-10 10:54:00,26.2,23.1,30.12,North,360,3.0,6.0,88,0.00,,,0.00,190,Wunderground v.1.15,2013-02-10 15:54:00,
2013-02-10 10:57:00,26.4,23.3,30.12,North,5,2.0,6.0,88,0.00,,,0.00,178,Wunderground v.1.15,2013-02-10 15:57:00,
2013-02-10 10:58:00,26.4,23.3,30.12,NNE,23,2.0,6.0,88,0.00,,,0.00,185,Wunderground v.1.15,2013-02-10 15:58:00,
2013-02-10 11:03:00,26.6,23.3,30.11,North,360,2.0,6.0,87,0.00,,,0.00,195,Wunderground v.1.15,2013-02-10 16:03:00,
2013-02-10 11:06:00,26.7,23.4,30.11,North,5,2.0,6.0,87,0.00,,,0.00,209,Wunderground v.1.15,2013-02-10 16:06:00,
2013-02-10 11:09:00,26.8,23.4,30.11,North,355,3.0,6.0,87,0.00,,,0.00,202,Wunderground v.1.15,2013-02-10 16:09:00,
2013-02-10 11:12:00,26.9,23.5,30.11,North,5,2.0,6.0,87,0.00,,,0.00,148,Wunderground v.1.15,2013-02-10 16:12:00,
2013-02-10 11:16:00,26.9,23.5,30.10,NNE,15,2.0,6.0,87,0.00,,,0.00,120,Wunderground v.1.15,2013-02-10 16:16:00,
2013-02-10 11:17:00,26.9,23.5,30.10,North,360,2.0,7.0,87,0.00,,,0.00,121,Wunderground v.1.15,2013-02-10 16:17:00,
2013-02-10 11:21:00,27.0,23.6,30.10,North,355,3.0,6.0,87,0.00,,,0.00,113,Wunderground v.1.15,2013-02-10 16:21:00,
2013-02-10 11:24:00,27.1,23.5,30.10,North,355,3.0,6.0,86,0.00,,,0.00,158,Wunderground v.1.15,2013-02-10 16:24:00,
2013-02-10 11:27:00,27.1,23.5,30.10,North,360,3.0,6.0,86,0.00,,,0.00,195,Wunderground v.1.15,2013-02-10 16:27:00,
2013-02-10 11:29:00,27.2,23.6,30.10,North,360,3.0,6.0,86,0.00,,,0.00,199,Wunderground v.1.15,2013-02-10 16:29:00,
2013-02-10 11:31:00,27.2,23.8,30.09,NNW,339,3.0,6.0,87,0.00,,,0.00,206,Wunderground v.1.15,2013-02-10 16:31:00,
2013-02-10 11:33:00,27.3,23.9,30.10,NNW,346,3.0,6.0,87,0.00,,,0.00,225,Wunderground v.1.15,2013-02-10 16:33:00,
2013-02-10 11:38:00,27.6,24.2,30.09,NW,315,2.0,6.0,87,0.00,,,0.00,141,Wunderground v.1.15,2013-02-10 16:38:00,
2013-02-10 11:39:00,27.6,24.2,30.09,North,360,2.0,6.0,87,0.00,,,0.00,120,Wunderground v.1.15,2013-02-10 16:39:00,
2013-02-10 11:44:00,27.8,24.2,30.09,North,360,3.0,6.0,86,0.00,,,0.00,109,Wunderground v.1.15,2013-02-10 16:44:00,
2013-02-10 11:45:00,27.9,24.3,30.09,North,11,3.0,6.0,86,0.00,,,0.00,127,Wunderground v.1.15,2013-02-10 16:45:00,
2013-02-10 11:46:00,27.9,24.3,30.09,North,355,3.0,6.0,86,0.00,,,0.00,151,Wunderground v.1.15,2013-02-10 16:46:00,
2013-02-10 11:51:00,28.1,24.5,30.09,North,9,3.0,7.0,86,0.00,,,0.00,186,Wunderground v.1.15,2013-02-10 16:51:00,
2013-02-10 11:54:00,28.1,24.5,30.09,North,10,3.0,7.0,86,0.00,,,0.00,225,Wunderground v.1.15,2013-02-10 16:54:00,
2013-02-10 11:57:00,28.0,24.1,30.09,NNW,340,4.0,7.0,85,0.00,,,0.00,236,Wunderground v.1.15,2013-02-10 16:57:00,
2013-02-10 12:00:00,28.0,24.4,30.09,North,360,3.0,3.0,86,0.00,,,0.00,227,Wunderground v.1.15,2013-02-10 17:00:00,
2013-02-10 12:02:00,28.0,24.4,30.09,NNE,30,3.0,7.0,86,0.00,,,0.00,188,Wunderground v.1.15,2013-02-10 17:02:00,
2013-02-10 12:05:00,27.9,24.0,30.09,North,9,4.0,7.0,85,0.00,,,0.00,193,Wunderground v.1.15,2013-02-10 17:05:00,
2013-02-10 12:06:00,27.9,24.0,30.09,North,360,4.0,7.0,85,0.00,,,0.00,199,Wunderground v.1.15,2013-02-10 17:06:00,
2013-02-10 12:09:00,27.9,24.3,30.09,North,355,4.0,7.0,86,0.00,,,0.00,207,Wunderground v.1.15,2013-02-10 17:09:00,
2013-02-10 12:12:00,27.9,24.3,30.09,North,350,4.0,6.0,86,0.00,,,0.00,199,Wunderground v.1.15,2013-02-10 17:12:00,
2013-02-10 12:17:00,27.9,24.3,30.09,North,360,4.0,6.0,86,0.00,,,0.00,206,Wunderground v.1.15,2013-02-10 17:17:00,
2013-02-10 12:18:00,27.9,24.3,30.09,NNE,13,4.0,6.0,86,0.00,,,0.00,206,Wunderground v.1.15,2013-02-10 17:18:00,
2013-02-10 12:19:00,27.9,24.3,30.09,North,5,4.0,6.0,86,0.00,,,0.00,179,Wunderground v.1.15,2013-02-10 17:19:00,
2013-02-10 12:23:00,27.9,24.3,30.09,East,95,5.0,7.0,86,0.00,,,0.00,221,Wunderground v.1.15,2013-02-10 17:23:00,
2013-02-10 12:25:00,27.9,24.3,30.09,North,360,5.0,7.0,86,0.00,,,0.00,207,Wunderground v.1.15,2013-02-10 17:25:00,
2013-02-10 12:29:00,28.0,24.4,30.09,North,360,4.0,7.0,86,0.00,,,0.00,225,Wunderground v.1.15,2013-02-10 17:29:00,
2013-02-10 12:30:00,28.1,24.5,30.09,North,355,4.0,6.0,86,0.00,,,0.00,227,Wunderground v.1.15,2013-02-10 17:30:00,
2013-02-10 12:31:00,28.1,24.7,30.09,NNE,15,4.0,6.0,87,0.00,,,0.00,230,Wunderground v.1.15,2013-02-10 17:31:00,
2013-02-10 12:37:00,28.3,24.9,30.09,NNE,24,4.0,6.0,87,0.00,,,0.00,218,Wunderground v.1.15,2013-02-10 17:37:00,
2013-02-10 12:38:00,28.4,25.0,30.09,North,360,4.0,6.0,87,0.00,,,0.00,221,Wunderground v.1.15,2013-02-10 17:38:00,
2013-02-10 12:40:00,28.4,25.0,30.09,NNE,19,4.0,4.0,87,0.00,,,0.00,200,Wunderground v.1.15,2013-02-10 17:40:00,
2013-02-10 12:45:00,28.5,24.8,30.09,NNW,341,4.0,8.0,86,0.00,,,0.00,251,Wunderground v.1.15,2013-02-10 17:45:00,
2013-02-10 12:46:00,28.5,24.8,30.09,NNW,329,4.0,8.0,86,0.00,,,0.00,218,Wunderground v.1.15,2013-02-10 17:46:00,
2013-02-10 12:48:00,28.5,24.8,30.09,NNW,348,4.0,8.0,86,0.00,,,0.00,193,Wunderground v.1.15,2013-02-10 17:48:00,
2013-02-10 12:49:00,28.5,24.8,30.09,NNE,31,4.0,8.0,86,0.00,,,0.00,197,Wunderground v.1.15,2013-02-10 17:49:00,
2013-02-10 12:52:00,28.5,24.8,30.09,North,5,4.0,6.0,86,0.00,,,0.00,172,Wunderground v.1.15,2013-02-10 17:52:00,
2013-02-10 12:54:00,28.5,24.8,30.09,NE,49,3.0,6.0,86,0.00,,,0.00,156,Wunderground v.1.15,2013-02-10 17:54:00,
2013-02-10 12:55:00,28.6,24.9,30.09,NNE,21,3.0,6.0,86,0.00,,,0.00,162,Wunderground v.1.15,2013-02-10 17:55:00,
2013-02-10 12:58:00,28.6,24.9,30.09,NNW,345,3.0,6.0,86,0.00,,,0.00,169,Wunderground v.1.15,2013-02-10 17:58:00,
2013-02-10 13:00:00,28.5,24.8,30.09,NNE,32,3.0,3.0,86,0.00,,,0.00,160,Wunderground v.1.15,2013-02-10 18:00:00,
2013-02-10 13:01:00,28.5,24.8,30.09,North,5,3.0,6.0,86,0.00,,,0.00,165,Wunderground v.1.15,2013-02-10 18:01:00,
2013-02-10 13:05:00,28.6,24.9,30.09,NNE,17,3.0,6.0,86,0.00,,,0.00,193,Wunderground v.1.15,2013-02-10 18:05:00,
2013-02-10 13:07:00,28.6,25.2,30.08,North,360,2.0,6.0,87,0.00,,,0.00,186,Wunderground v.1.15,2013-02-10 18:07:00,
2013-02-10 13:10:00,28.7,25.3,30.08,NNE,13,2.0,2.0,87,0.00,,,0.00,181,Wunderground v.1.15,2013-02-10 18:10:00,
2013-02-10 13:16:00,28.9,25.5,30.07,NNW,336,2.0,6.0,87,0.00,,,0.00,206,Wunderground v.1.15,2013-02-10 18:16:00,
2013-02-10 13:17:00,29.0,25.6,30.07,North,10,2.0,6.0,87,0.00,,,0.00,206,Wunderground v.1.15,2013-02-10 18:17:00,
2013-02-10 13:18:00,29.0,25.6,30.07,North,360,2.0,6.0,87,0.00,,,0.00,200,Wunderground v.1.15,2013-02-10 18:18:00,
2013-02-10 13:22:00,29.2,25.5,30.08,North,355,2.0,6.0,86,0.00,,,0.00,193,Wunderground v.1.15,2013-02-10 18:22:00,
2013-02-10 13:25:00,29.2,25.5,30.07,North,5,3.0,6.0,86,0.00,,,0.00,185,Wunderground v.1.15,2013-02-10 18:25:00,
2013-02-10 13:26:00,29.3,25.6,30.07,NNW,336,3.0,6.0,86,0.00,,,0.00,202,Wunderground v.1.15,2013-02-10 18:26:00,
2013-02-10 13:27:00,29.3,25.6,30.07,North,360,3.0,6.0,86,0.00,,,0.00,193,Wunderground v.1.15,2013-02-10 18:27:00,
2013-02-10 13:32:00,29.4,25.7,30.07,North,11,3.0,6.0,86,0.00,,,0.00,190,Wunderground v.1.15,2013-02-10 18:32:00,
2013-02-10 13:33:00,29.4,25.7,30.07,North,355,3.0,6.0,86,0.00,,,0.00,195,Wunderground v.1.15,2013-02-10 18:33:00,
2013-02-10 13:34:00,29.5,25.8,30.07,NNW,340,3.0,6.0,86,0.00,,,0.00,188,Wunderground v.1.15,2013-02-10 18:34:00,
2013-02-10 13:35:00,29.5,25.8,30.07,NNW,344,3.0,6.0,86,0.00,,,0.00,195,Wunderground v.1.15,2013-02-10 18:35:00,
2013-02-10 13:39:00,29.6,25.9,30.06,North,5,3.0,7.0,86,0.00,,,0.00,195,Wunderground v.1.15,2013-02-10 18:39:00,
2013-02-10 13:42:00,29.7,25.7,30.06,North,355,4.0,6.0,85,0.00,,,0.00,197,Wunderground v.1.15,2013-02-10 18:42:00,
2013-02-10 13:45:00,29.8,26.1,30.06,North,5,4.0,6.0,86,0.00,,,0.00,202,Wunderground v.1.15,2013-02-10 18:45:00,
2013-02-10 13:46:00,29.8,26.1,30.05,NE,48,4.0,6.0,86,0.00,,,0.00,207,Wunderground v.1.15,2013-02-10 18:46:00,
2013-02-10 13:50:00,30.0,26.3,30.05,North,5,3.0,3.0,86,0.00,,,0.00,199,Wunderground v.1.15,2013-02-10 18:50:00,
2013-02-10 13:52:00,30.1,26.4,30.05,North,11,3.0,6.0,86,0.00,,,0.00,200,Wunderground v.1.15,2013-02-10 18:52:00,
2013-02-10 13:54:00,30.2,26.2,30.05,North,360,3.0,6.0,85,0.00,,,0.00,200,Wunderground v.1.15,2013-02-10 18:54:00,
2013-02-10 13:55:00,30.2,26.2,30.05,NNE,12,3.0,6.0,85,0.00,,,0.00,200,Wunderground v.1.15,2013-02-10 18:55:00,
2013-02-10 13:56:00,30.3,26.3,30.05,NNW,346,3.0,6.0,85,0.00,,,0.00,204,Wunderground v.1.15,2013-02-10 18:56:00,
2013-02-10 14:02:00,30.6,26.6,30.04,North,5,3.0,6.0,85,0.00,,,0.00,206,Wunderground v.1.15,2013-02-10 19:02:00,
2013-02-10 14:03:00,30.6,26.6,30.04,North,10,4.0,6.0,85,0.00,,,0.00,200,Wunderground v.1.15,2013-02-10 19:03:00,
2013-02-10 14:06:00,30.8,26.8,30.04,NNW,330,4.0,6.0,85,0.00,,,0.00,195,Wunderground v.1.15,2013-02-10 19:06:00,
2013-02-10 14:08:00,30.8,26.5,30.03,NNW,340,4.0,6.0,84,0.00,,,0.00,190,Wunderground v.1.15,2013-02-10 19:08:00,
2013-02-10 14:09:00,30.9,26.6,30.03,NNE,15,4.0,6.0,84,0.00,,,0.00,186,Wunderground v.1.15,2013-02-10 19:09:00,
2013-02-10 14:14:00,31.1,26.8,30.03,NNE,19,4.0,6.0,84,0.00,,,0.00,186,Wunderground v.1.15,2013-02-10 19:14:00,
2013-02-10 14:16:00,31.2,26.9,30.03,North,5,3.0,6.0,84,0.00,,,0.00,183,Wunderground v.1.15,2013-02-10 19:16:00,
2013-02-10 14:20:00,31.4,27.1,30.02,North,355,3.0,3.0,84,0.00,,,0.00,174,Wunderground v.1.15,2013-02-10 19:20:00,
2013-02-10 14:21:00,31.4,27.1,30.03,NNE,12,3.0,4.0,84,0.00,,,0.00,174,Wunderground v.1.15,2013-02-10 19:21:00,
2013-02-10 14:27:00,31.7,27.4,30.03,North,5,4.0,6.0,84,0.00,,,0.00,176,Wunderground v.1.15,2013-02-10 19:27:00,
2013-02-10 14:29:00,31.7,27.4,30.03,North,5,4.0,6.0,84,0.00,,,0.00,176,Wunderground v.1.15,2013-02-10 19:29:00,
2013-02-10 14:31:00,31.8,27.5,30.02,North,11,4.0,6.0,84,0.00,,,0.00,174,Wunderground v.1.15,2013-02-10 19:31:00,
2013-02-10 14:32:00,31.8,27.5,30.02,North,11,4.0,9.0,84,0.00,,,0.00,174,Wunderground v.1.15,2013-02-10 19:32:00,
2013-02-10 14:36:00,31.9,27.3,30.01,NNW,346,4.0,9.0,83,0.00,,,0.00,167,Wunderground v.1.15,2013-02-10 19:36:00,
2013-02-10 14:37:00,31.9,27.3,30.01,North,360,4.0,9.0,83,0.00,,,0.00,165,Wunderground v.1.15,2013-02-10 19:37:00,
2013-02-10 14:42:00,32.0,27.7,30.01,North,5,4.0,7.0,84,0.00,,,0.00,153,Wunderground v.1.15,2013-02-10 19:42:00,
2013-02-10 14:44:00,32.1,27.5,30.01,North,360,4.0,7.0,83,0.00,,,0.00,149,Wunderground v.1.15,2013-02-10 19:44:00,
2013-02-10 14:46:00,32.1,27.5,30.01,NNW,337,4.0,7.0,83,0.00,,,0.00,153,Wunderground v.1.15,2013-02-10 19:46:00,
2013-02-10 14:48:00,32.1,27.8,30.00,North,355,4.0,7.0,84,0.00,,,0.00,149,Wunderground v.1.15,2013-02-10 19:48:00,
2013-02-10 14:53:00,32.3,28.0,30.00,NNE,16,4.0,6.0,84,0.00,,,0.00,148,Wunderground v.1.15,2013-02-10 19:53:00,
2013-02-10 14:54:00,32.3,28.0,30.00,North,5,4.0,6.0,84,0.00,,,0.00,151,Wunderground v.1.15,2013-02-10 19:54:00,
2013-02-10 14:58:00,32.4,28.1,29.99,North,355,3.0,6.0,84,0.00,,,0.00,155,Wunderground v.1.15,2013-02-10 19:58:00,
2013-02-10 15:00:00,32.5,28.2,30.00,North,360,3.0,6.0,84,0.00,,,0.00,151,Wunderground v.1.15,2013-02-10 20:00:00,
2013-02-10 15:02:00,32.6,28.3,30.00,North,350,4.0,6.0,84,0.00,,,0.00,151,Wunderground v.1.15,2013-02-10 20:02:00,
2013-02-10 15:05:00,32.6,28.3,30.00,ESE,106,4.0,6.0,84,0.00,,,0.00,144,Wunderground v.1.15,2013-02-10 20:05:00,
2013-02-10 15:06:00,32.6,28.3,30.00,NNW,336,4.0,6.0,84,0.00,,,0.00,142,Wunderground v.1.15,2013-02-10 20:06:00,
2013-02-10 15:07:00,32.6,28.3,30.00,NNW,344,4.0,6.0,84,0.00,,,0.00,141,Wunderground v.1.15,2013-02-10 20:07:00,
2013-02-10 15:09:00,32.6,28.3,29.99,NW,326,4.0,6.0,84,0.00,,,0.00,137,Wunderground v.1.15,2013-02-10 20:09:00,
2013-02-10 15:11:00,32.6,28.3,29.99,North,360,4.0,6.0,84,0.00,,,0.00,134,Wunderground v.1.15,2013-02-10 20:11:00,
2013-02-10 15:12:00,32.6,28.3,29.99,NNW,338,4.0,6.0,84,0.00,,,0.00,134,Wunderground v.1.15,2013-02-10 20:12:00,
2013-02-10 15:13:00,32.6,28.3,29.99,NNW,347,4.0,6.0,84,0.00,,,0.00,134,Wunderground v.1.15,2013-02-10 20:13:00,
2013-02-10 15:18:00,32.7,28.4,29.99,North,350,4.0,9.0,84,0.00,,,0.00,128,Wunderground v.1.15,2013-02-10 20:18:00,
2013-02-10 15:20:00,32.8,28.5,29.99,North,5,5.0,6.0,84,0.00,,,0.00,127,Wunderground v.1.15,2013-02-10 20:20:00,
2013-02-10 15:25:00,32.9,28.6,29.98,North,5,4.0,6.0,84,0.00,,,0.00,118,Wunderground v.1.15,2013-02-10 20:25:00,
2013-02-10 15:27:00,32.9,28.6,29.98,North,360,4.0,6.0,84,0.00,,,0.00,116,Wunderground v.1.15,2013-02-10 20:27:00,
2013-02-10 15:30:00,33.0,28.7,29.98,ENE,71,4.0,4.0,84,0.00,,,0.00,111,Wunderground v.1.15,2013-02-10 20:30:00,
2013-02-10 15:32:00,33.0,28.7,29.98,NNE,12,3.0,6.0,84,0.00,,,0.00,111,Wunderground v.1.15,2013-02-10 20:32:00,
2013-02-10 15:33:00,33.0,28.7,29.98,NNE,17,3.0,6.0,84,0.00,,,0.00,109,Wunderground v.1.15,2013-02-10 20:33:00,
2013-02-10 15:35:00,33.0,28.7,29.98,North,360,4.0,6.0,84,0.00,,,0.00,107,Wunderground v.1.15,2013-02-10 20:35:00,
2013-02-10 15:38:00,33.1,28.8,29.98,North,11,3.0,7.0,84,0.00,,,0.00,100,Wunderground v.1.15,2013-02-10 20:38:00,
2013-02-10 15:40:00,33.2,28.9,29.98,North,355,3.0,6.0,84,0.00,,,0.00,93,Wunderground v.1.15,2013-02-10 20:40:00,
2013-02-10 15:46:00,33.3,29.3,29.98,WSW,252,4.0,6.0,85,0.00,,,0.00,88,Wunderground v.1.15,2013-02-10 20:46:00,
2013-02-10 15:47:00,33.3,29.3,29.98,North,349,4.0,7.0,85,0.00,,,0.00,84,Wunderground v.1.15,2013-02-10 20:47:00,
2013-02-10 15:49:00,33.4,29.4,29.98,North,360,5.0,7.0,85,0.00,,,0.00,81,Wunderground v.1.15,2013-02-10 20:49:00,
2013-02-10 15:50:00,33.4,29.4,29.98,North,11,5.0,5.0,85,0.00,,,0.00,81,Wunderground v.1.15,2013-02-10 20:50:00,
2013-02-10 15:52:00,33.4,29.4,29.98,NNE,21,6.0,6.0,85,0.00,,,0.00,77,Wunderground v.1.15,2013-02-10 20:52:00,
2013-02-10 15:53:00,33.4,29.7,29.98,NNE,12,6.0,6.0,86,0.00,,,0.00,76,Wunderground v.1.15,2013-02-10 20:53:00,
2013-02-10 15:56:00,33.4,29.7,29.98,North,349,6.0,6.0,86,0.00,,,0.00,77,Wunderground v.1.15,2013-02-10 20:56:00,
2013-02-10 15:57:00,33.4,29.7,29.98,North,5,5.0,6.0,86,0.00,,,0.00,72,Wunderground v.1.15,2013-02-10 20:57:00,
2013-02-10 16:01:00,33.4,29.7,29.97,NNE,13,4.0,6.0,86,0.00,,,0.00,72,Wunderground v.1.15,2013-02-10 21:01:00,
2013-02-10 16:03:00,33.5,29.8,29.97,NNE,16,4.0,6.0,86,0.00,,,0.00,70,Wunderground v.1.15,2013-02-10 21:03:00,
2013-02-10 16:08:00,33.5,29.8,29.97,North,360,4.0,8.0,86,0.00,,,0.00,69,Wunderground v.1.15,2013-02-10 21:08:00,
2013-02-10 16:09:00,33.5,29.8,29.97,NNW,348,4.0,8.0,86,0.00,,,0.00,69,Wunderground v.1.15,2013-02-10 21:09:00,
2013-02-10 16:10:00,33.5,29.8,29.96,North,360,4.0,9.0,86,0.00,,,0.00,65,Wunderground v.1.15,2013-02-10 21:10:00,
2013-02-10 16:11:00,33.5,29.8,29.96,North,349,4.0,9.0,86,0.00,,,0.00,69,Wunderground v.1.15,2013-02-10 21:11:00,
2013-02-10 16:14:00,33.4,29.7,29.96,North,5,5.0,9.0,86,0.00,,,0.00,67,Wunderground v.1.15,2013-02-10 21:14:00,
2013-02-10 16:15:00,33.5,29.8,29.96,North,355,6.0,9.0,86,0.00,,,0.00,69,Wunderground v.1.15,2013-02-10 21:15:00,
2013-02-10 16:17:00,33.5,29.8,29.96,NNW,344,6.0,9.0,86,0.00,,,0.00,69,Wunderground v.1.15,2013-02-10 21:17:00,
2013-02-10 16:20:00,33.5,29.8,29.96,NNE,29,6.0,6.0,86,0.00,,,0.00,63,Wunderground v.1.15,2013-02-10 21:20:00,
2013-02-10 16:21:00,33.5,30.0,29.95,NNW,327,6.0,6.0,87,0.00,,,0.00,62,Wunderground v.1.15,2013-02-10 21:21:00,
2013-02-10 16:22:00,33.5,30.0,29.95,NNW,348,6.0,6.0,87,0.00,,,0.00,62,Wunderground v.1.15,2013-02-10 21:22:00,
2013-02-10 16:23:00,33.5,30.0,29.95,North,9,6.0,6.0,87,0.00,,,0.00,58,Wunderground v.1.15,2013-02-10 21:23:00,
2013-02-10 16:26:00,33.5,30.0,29.95,North,5,6.0,8.0,87,0.00,,,0.00,54,Wunderground v.1.15,2013-02-10 21:26:00,
2013-02-10 16:27:00,33.5,30.0,29.95,North,5,5.0,8.0,87,0.00,,,0.00,53,Wunderground v.1.15,2013-02-10 21:27:00,
2013-02-10 16:28:00,33.5,30.0,29.95,NNE,22,5.0,8.0,87,0.00,,,0.00,49,Wunderground v.1.15,2013-02-10 21:28:00,
2013-02-10 16:31:00,33.5,30.0,29.95,North,360,5.0,6.0,87,0.00,,,0.00,44,Wunderground v.1.15,2013-02-10 21:31:00,
2013-02-10 16:33:00,33.5,30.0,29.95,North,355,5.0,6.0,87,0.00,,,0.00,39,Wunderground v.1.15,2013-02-10 21:33:00,
2013-02-10 16:34:00,33.5,30.0,29.95,North,5,5.0,8.0,87,0.00,,,0.00,40,Wunderground v.1.15,2013-02-10 21:34:00,
2013-02-10 16:38:00,33.5,30.0,29.94,NE,45,4.0,8.0,87,0.00,,,0.00,39,Wunderground v.1.15,2013-02-10 21:38:00,
2013-02-10 16:39:00,33.4,29.9,29.94,NNW,344,4.0,8.0,87,0.00,,,0.00,35,Wunderground v.1.15,2013-02-10 21:39:00,
2013-02-10 16:40:00,33.4,29.9,29.94,NNW,342,4.0,7.0,87,0.00,,,0.00,35,Wunderground v.1.15,2013-02-10 21:40:00,
2013-02-10 16:43:00,33.4,29.9,29.94,North,355,5.0,7.0,87,0.00,,,0.00,33,Wunderground v.1.15,2013-02-10 21:43:00,
2013-02-10 16:47:00,33.3,30.1,29.94,NNW,347,6.0,9.0,88,0.00,,,0.00,30,Wunderground v.1.15,2013-02-10 21:47:00,
2013-02-10 16:48:00,33.2,30.0,29.94,North,5,6.0,9.0,88,0.00,,,0.00,28,Wunderground v.1.15,2013-02-10 21:48:00,
2013-02-10 16:50:00,33.2,30.0,29.94,North,5,6.0,6.0,88,0.00,,,0.00,28,Wunderground v.1.15,2013-02-10 21:50:00,
2013-02-10 16:52:00,33.1,29.9,29.93,NNE,13,6.0,8.0,88,0.00,,,0.00,25,Wunderground v.1.15,2013-02-10 21:52:00,
2013-02-10 16:53:00,33.2,30.0,29.94,East,88,6.0,8.0,88,0.00,,,0.00,21,Wunderground v.1.15,2013-02-10 21:53:00,
2013-02-10 16:59:00,32.9,29.7,29.93,NNW,344,6.0,8.0,88,0.00,,,0.00,12,Wunderground v.1.15,2013-02-10 21:59:00,
2013-02-10 17:00:00,32.9,29.7,29.93,North,355,6.0,9.0,88,0.00,,,0.00,12,Wunderground v.1.15,2013-02-10 22:00:00,
2013-02-10 17:05:00,32.7,29.5,29.93,North,5,6.0,12.0,88,0.00,,,0.00,12,Wunderground v.1.15,2013-02-10 22:05:00,
2013-02-10 17:06:00,32.6,29.4,29.93,North,5,6.0,12.0,88,0.00,,,0.00,12,Wunderground v.1.15,2013-02-10 22:06:00,
2013-02-10 17:07:00,32.6,29.4,29.93,North,5,6.0,12.0,88,0.00,,,0.00,12,Wunderground v.1.15,2013-02-10 22:07:00,
2013-02-10 17:08:00,32.6,29.4,29.93,NNW,345,6.0,12.0,88,0.00,,,0.00,12,Wunderground v.1.15,2013-02-10 22:08:00,
2013-02-10 17:11:00,32.5,29.3,29.92,SSW,208,6.0,7.0,88,0.00,,,0.00,11,Wunderground v.1.15,2013-02-10 22:11:00,
2013-02-10 17:12:00,32.4,29.2,29.92,North,11,6.0,7.0,88,0.00,,,0.00,9,Wunderground v.1.15,2013-02-10 22:12:00,
2013-02-10 17:16:00,32.3,29.1,29.92,NNE,28,6.0,7.0,88,0.00,,,0.00,7,Wunderground v.1.15,2013-02-10 22:16:00,
2013-02-10 17:17:00,32.3,29.4,29.92,North,11,5.0,7.0,89,0.00,,,0.00,7,Wunderground v.1.15,2013-02-10 22:17:00,
2013-02-10 17:18:00,32.3,29.4,29.92,North,5,5.0,7.0,89,0.00,,,0.00,7,Wunderground v.1.15,2013-02-10 22:18:00,
2013-02-10 17:22:00,32.1,29.2,29.92,NNW,336,4.0,6.0,89,0.00,,,0.00,5,Wunderground v.1.15,2013-02-10 22:22:00,
2013-02-10 17:23:00,32.1,29.2,29.92,North,360,4.0,6.0,89,0.00,,,0.00,5,Wunderground v.1.15,2013-02-10 22:23:00,
2013-02-10 17:25:00,32.1,29.2,29.91,NNW,348,5.0,6.0,89,0.00,,,0.00,0,Wunderground v.1.15,2013-02-10 22:25:00,
2013-02-10 17:28:00,32.0,29.1,29.91,North,355,5.0,8.0,89,0.00,,,0.00,0,Wunderground v.1.15,2013-02-10 22:28:00,
2013-02-10 17:29:00,32.0,29.1,29.91,North,350,5.0,8.0,89,0.00,,,0.00,0,Wunderground v.1.15,2013-02-10 22:29:00,
2013-02-10 17:32:00,31.9,29.0,29.91,North,355,4.0,12.0,89,0.00,,,0.00,0,Wunderground v.1.15,2013-02-10 22:32:00,
2013-02-10 17:36:00,31.8,28.9,29.90,NNE,13,5.0,12.0,89,0.00,,,0.00,0,Wunderground v.1.15,2013-02-10 22:36:00,
2013-02-10 17:38:00,31.8,28.9,29.89,NNW,336,5.0,12.0,89,0.00,,,0.00,0,Wunderground v.1.15,2013-02-10 22:38:00,
2013-02-10 17:41:00,31.7,28.6,29.90,North,5,6.0,7.0,88,0.00,,,0.00,0,Wunderground v.1.15,2013-02-10 22:41:00,
2013-02-10 17:42:00,31.7,28.6,29.90,North,11,6.0,7.0,88,0.00,,,0.00,0,Wunderground v.1.15,2013-02-10 22:42:00,
2013-02-10 17:47:00,31.6,28.5,29.89,North,5,6.0,12.0,88,0.00,,,0.00,0,Wunderground v.1.15,2013-02-10 22:47:00,
2013-02-10 17:50:00,31.5,28.4,29.89,NNW,342,5.0,5.0,88,0.00,,,0.00,0,Wunderground v.1.15,2013-02-10 22:50:00,
2013-02-10 17:53:00,31.5,28.4,29.89,NNW,330,5.0,6.0,88,0.00,,,0.00,0,Wunderground v.1.15,2013-02-10 22:53:00,
2013-02-10 17:54:00,31.5,28.4,29.89,NNW,340,5.0,8.0,88,0.00,,,0.00,0,Wunderground v.1.15,2013-02-10 22:54:00,
2013-02-10 17:56:00,31.4,28.3,29.89,North,355,5.0,13.0,88,0.00,,,0.00,0,Wunderground v.1.15,2013-02-10 22:56:00,
2013-02-10 17:58:00,31.4,28.0,29.89,North,11,5.0,13.0,87,0.00,,,0.00,0,Wunderground v.1.15,2013-02-10 22:58:00,
2013-02-10 18:00:00,31.4,28.0,29.88,North,5,5.0,7.0,87,0.00,,,0.00,0,Wunderground v.1.15,2013-02-10 23:00:00,
2013-02-10 18:05:00,31.4,28.0,29.88,NNW,331,5.0,7.0,87,0.00,,,0.00,0,Wunderground v.1.15,2013-02-10 23:05:00,
2013-02-10 18:06:00,31.4,28.0,29.88,North,355,5.0,9.0,87,0.00,,,0.00,0,Wunderground v.1.15,2013-02-10 23:06:00,
2013-02-10 18:07:00,31.4,28.0,29.88,NW,320,6.0,9.0,87,0.00,,,0.00,0,Wunderground v.1.15,2013-02-10 23:07:00,
2013-02-10 18:09:00,31.4,28.0,29.88,NNE,14,6.0,9.0,87,0.00,,,0.00,0,Wunderground v.1.15,2013-02-10 23:09:00,
2013-02-10 18:12:00,31.4,28.0,29.88,North,9,6.0,8.0,87,0.00,,,0.00,0,Wunderground v.1.15,2013-02-10 23:12:00,
2013-02-10 18:15:00,31.4,27.7,29.87,North,355,5.0,9.0,86,0.00,,,0.00,0,Wunderground v.1.15,2013-02-10 23:15:00,
2013-02-10 18:16:00,31.4,27.7,29.87,North,5,5.0,9.0,86,0.00,,,0.00,0,Wunderground v.1.15,2013-02-10 23:16:00,
2013-02-10 18:18:00,31.4,27.7,29.87,North,355,5.0,9.0,86,0.00,,,0.00,0,Wunderground v.1.15,2013-02-10 23:18:00,
2013-02-10 18:24:00,31.4,27.7,29.86,North,5,7.0,10.0,86,0.00,,,0.00,0,Wunderground v.1.15,2013-02-10 23:24:00,
2013-02-10 18:25:00,31.4,27.7,29.86,NE,34,7.0,10.0,86,0.00,,,0.00,0,Wunderground v.1.15,2013-02-10 23:25:00,
2013-02-10 18:27:00,31.4,27.4,29.86,North,355,7.0,10.0,85,0.00,,,0.00,0,Wunderground v.1.15,2013-02-10 23:27:00,
2013-02-10 18:31:00,31.4,27.4,29.87,North,355,7.0,7.0,85,0.00,,,0.00,0,Wunderground v.1.15,2013-02-10 23:31:00,
2013-02-10 18:32:00,31.4,27.4,29.87,NNW,335,7.0,7.0,85,0.00,,,0.00,0,Wunderground v.1.15,2013-02-10 23:32:00,
2013-02-10 18:34:00,31.4,27.7,29.87,North,355,6.0,7.0,86,0.00,,,0.00,0,Wunderground v.1.15,2013-02-10 23:34:00,
2013-02-10 18:36:00,31.3,27.3,29.87,North,355,5.0,7.0,85,0.00,,,0.00,0,Wunderground v.1.15,2013-02-10 23:36:00,
2013-02-10 18:37:00,31.4,27.4,29.87,NNW,346,5.0,7.0,85,0.00,,,0.00,0,Wunderground v.1.15,2013-02-10 23:37:00,
2013-02-10 18:38:00,31.3,27.3,29.87,North,5,5.0,7.0,85,0.00,,,0.00,0,Wunderground v.1.15,2013-02-10 23:38:00,
2013-02-10 18:40:00,31.4,27.4,29.87,NNE,20,4.0,7.0,85,0.00,,,0.00,0,Wunderground v.1.15,2013-02-10 23:40:00,
2013-02-10 18:44:00,31.3,27.3,29.87,NNW,331,5.0,12.0,85,0.00,,,0.00,0,Wunderground v.1.15,2013-02-10 23:44:00,
2013-02-10 18:48:00,31.4,27.1,29.86,NNE,15,6.0,12.0,84,0.00,,,0.00,0,Wunderground v.1.15,2013-02-10 23:48:00,
2013-02-10 18:50:00,31.4,27.1,29.86,North,11,6.0,7.0,84,0.00,,,0.00,0,Wunderground v.1.15,2013-02-10 23:50:00,
2013-02-10 18:54:00,31.4,27.1,29.86,North,360,6.0,7.0,84,0.00,,,0.00,0,Wunderground v.1.15,2013-02-10 23:54:00,
2013-02-10 18:56:00,31.4,27.1,29.85,NE,48,6.0,9.0,84,0.00,,,0.00,0,Wunderground v.1.15,2013-02-10 23:56:00,
2013-02-10 18:58:00,31.4,26.8,29.85,NNW,341,6.0,9.0,83,0.00,,,0.00,0,Wunderground v.1.15,2013-02-10 23:58:00,
2013-02-10 19:01:00,31.4,26.8,29.84,NE,41,5.0,6.0,83,0.00,,,0.00,0,Wunderground v.1.15,2013-02-11 00:01:00,
2013-02-10 19:03:00,31.4,26.8,29.84,NNW,342,5.0,9.0,83,0.00,,,0.00,0,Wunderground v.1.15,2013-02-11 00:03:00,
2013-02-10 19:06:00,31.4,26.8,29.84,North,355,5.0,9.0,83,0.00,,,0.00,0,Wunderground v.1.15,2013-02-11 00:06:00,
2013-02-10 19:07:00,31.4,26.8,29.84,North,360,5.0,9.0,83,0.00,,,0.00,0,Wunderground v.1.15,2013-02-11 00:07:00,
2013-02-10 19:08:00,31.5,26.9,29.84,North,355,5.0,9.0,83,0.00,,,0.00,0,Wunderground v.1.15,2013-02-11 00:08:00,
2013-02-10 19:10:00,31.4,26.8,29.84,North,355,6.0,8.0,83,0.00,,,0.00,0,Wunderground v.1.15,2013-02-11 00:10:00,
2013-02-10 19:12:00,31.5,26.6,29.84,North,355,6.0,8.0,82,0.00,,,0.00,0,Wunderground v.1.15,2013-02-11 00:12:00,
2013-02-10 19:15:00,31.5,26.6,29.83,North,360,6.0,8.0,82,0.00,,,0.00,0,Wunderground v.1.15,2013-02-11 00:15:00,
2013-02-10 19:16:00,31.5,26.6,29.83,NNE,32,6.0,8.0,82,0.00,,,0.00,0,Wunderground v.1.15,2013-02-11 00:16:00,
2013-02-10 19:17:00,31.5,26.6,29.83,North,5,6.0,8.0,82,0.00,,,0.00,0,Wunderground v.1.15,2013-02-11 00:17:00,
2013-02-10 19:22:00,31.4,26.5,29.83,North,5,5.0,8.0,82,0.00,,,0.00,0,Wunderground v.1.15,2013-02-11 00:22:00,
2013-02-10 19:23:00,31.4,26.5,29.82,North,355,5.0,10.0,82,0.00,,,0.00,0,Wunderground v.1.15,2013-02-11 00:23:00,
2013-02-10 19:24:00,31.4,26.2,29.82,NNW,342,5.0,10.0,81,0.00,,,0.00,0,Wunderground v.1.15,2013-02-11 00:24:00,
2013-02-10 19:25:00,31.4,26.2,29.82,NNW,344,5.0,10.0,81,0.00,,,0.00,0,Wunderground v.1.15,2013-02-11 00:25:00,
2013-02-10 19:28:00,31.4,26.2,29.82,NNW,344,6.0,10.0,81,0.00,,,0.00,0,Wunderground v.1.15,2013-02-11 00:28:00,
2013-02-10 19:31:00,31.3,26.4,29.82,NNE,26,6.0,8.0,82,0.00,,,0.00,0,Wunderground v.1.15,2013-02-11 00:31:00,
2013-02-10 19:32:00,31.3,26.4,29.82,North,5,6.0,8.0,82,0.00,,,0.00,0,Wunderground v.1.15,2013-02-11 00:32:00,
2013-02-10 19:35:00,31.2,26.3,29.82,North,5,6.0,11.0,82,0.00,,,0.00,0,Wunderground v.1.15,2013-02-11 00:35:00,
2013-02-10 19:38:00,31.2,26.6,29.81,NNE,27,6.0,11.0,83,0.00,,,0.00,0,Wunderground v.1.15,2013-02-11 00:38:00,
2013-02-10 19:39:00,31.2,26.6,29.82,NNW,346,6.0,11.0,83,0.00,,,0.00,0,Wunderground v.1.15,2013-02-11 00:39:00,
2013-02-10 19:40:00,31.1,26.5,29.81,NNW,346,6.0,12.0,83,0.00,,,0.00,0,Wunderground v.1.15,2013-02-11 00:40:00,
2013-02-10 19:44:00,31.1,26.5,29.81,North,5,7.0,12.0,83,0.00,,,0.00,0,Wunderground v.1.15,2013-02-11 00:44:00,
2013-02-10 19:46:00,31.1,26.5,29.81,North,350,7.0,12.0,83,0.00,,,0.00,0,Wunderground v.1.15,2013-02-11 00:46:00,
2013-02-10 19:47:00,31.1,26.5,29.81,NNE,22,7.0,12.0,83,0.00,,,0.00,0,Wunderground v.1.15,2013-02-11 00:47:00,
2013-02-10 19:50:00,31.0,26.4,29.81,NNW,342,7.0,7.0,83,0.00,,,0.00,0,Wunderground v.1.15,2013-02-11 00:50:00,
2013-02-10 19:53:00,31.0,26.4,29.81,WNW,302,7.0,10.0,83,0.00,,,0.00,0,Wunderground v.1.15,2013-02-11 00:53:00,
2013-02-10 19:54:00,31.0,26.4,29.80,North,349,7.0,10.0,83,0.00,,,0.00,0,Wunderground v.1.15,2013-02-11 00:54:00,
2013-02-10 19:55:00,31.0,26.4,29.80,NNW,348,7.0,10.0,83,0.00,,,0.00,0,Wunderground v.1.15,2013-02-11 00:55:00,
2013-02-10 19:59:00,31.0,26.4,29.80,NW,321,6.0,10.0,83,0.00,,,0.00,0,Wunderground v.1.15,2013-02-11 00:59:00,
2013-02-10 20:00:00,30.9,26.3,29.80,NNW,339,6.0,6.0,83,0.00,,,0.00,0,Wunderground v.1.15,2013-02-11 01:00:00,
2013-02-10 20:03:00,30.9,26.3,29.80,North,355,5.0,6.0,83,0.00,,,0.00,0,Wunderground v.1.15,2013-02-11 01:03:00,
2013-02-10 20:05:00,30.9,26.3,29.80,NNW,340,5.0,6.0,83,0.00,,,0.00,0,Wunderground v.1.15,2013-02-11 01:05:00,
2013-02-10 20:09:00,30.9,26.3,29.80,NNW,348,5.0,10.0,83,0.00,,,0.00,0,Wunderground v.1.15,2013-02-11 01:09:00,
2013-02-10 20:10:00,30.9,26.3,29.79,NNE,18,5.0,5.0,83,0.00,,,0.00,0,Wunderground v.1.15,2013-02-11 01:10:00,
2013-02-10 20:15:00,30.8,26.2,29.79,North,351,5.0,9.0,83,0.00,,,0.00,0,Wunderground v.1.15,2013-02-11 01:15:00,
2013-02-10 20:16:00,30.8,26.2,29.79,NNW,334,5.0,9.0,83,0.00,,,0.00,0,Wunderground v.1.15,2013-02-11 01:16:00,
2013-02-10 20:18:00,30.7,26.1,29.79,North,355,6.0,9.0,83,0.00,,,0.00,0,Wunderground v.1.15,2013-02-11 01:18:00,
2013-02-10 20:19:00,30.7,26.4,29.79,North,355,6.0,9.0,84,0.00,,,0.00,0,Wunderground v.1.15,2013-02-11 01:19:00,
2013-02-10 20:22:00,30.6,26.3,29.79,North,360,6.0,7.0,84,0.00,,,0.00,0,Wunderground v.1.15,2013-02-11 01:22:00,
2013-02-10 20:23:00,30.6,26.3,29.79,North,5,6.0,8.0,84,0.00,,,0.00,0,Wunderground v.1.15,2013-02-11 01:23:00,
2013-02-10 20:24:00,30.6,26.3,29.79,North,5,5.0,8.0,84,0.00,,,0.00,0,Wunderground v.1.15,2013-02-11 01:24:00,
2013-02-10 20:30:00,30.4,26.4,29.79,North,5,5.0,5.0,85,0.00,,,0.00,0,Wunderground v.1.15,2013-02-11 01:30:00,
2013-02-10 20:34:00,30.3,26.6,29.78,NW,314,6.0,8.0,86,0.00,,,0.00,0,Wunderground v.1.15,2013-02-11 01:34:00,
2013-02-10 20:36:00,30.3,26.6,29.78,North,9,7.0,10.0,86,0.00,,,0.00,0,Wunderground v.1.15,2013-02-11 01:36:00,
2013-02-10 20:37:00,30.3,26.6,29.78,North,355,7.0,10.0,86,0.00,,,0.00,0,Wunderground v.1.15,2013-02-11 01:37:00,
2013-02-10 20:40:00,30.3,26.6,29.77,North,355,7.0,9.0,86,0.00,,,0.00,0,Wunderground v.1.15,2013-02-11 01:40:00,
2013-02-10 20:43:00,30.2,26.8,29.77,North,11,7.0,10.0,87,0.00,,,0.00,0,Wunderground v.1.15,2013-02-11 01:43:00,
2013-02-10 20:44:00,30.2,26.8,29.77,North,360,7.0,10.0,87,0.00,,,0.00,0,Wunderground v.1.15,2013-02-11 01:44:00,
2013-02-10 20:46:00,30.2,26.8,29.77,NNW,348,7.0,10.0,87,0.00,,,0.00,0,Wunderground v.1.15,2013-02-11 01:46:00,
2013-02-10 20:48:00,30.1,26.7,29.77,North,11,7.0,10.0,87,0.00,,,0.00,0,Wunderground v.1.15,2013-02-11 01:48:00,
2013-02-10 20:49:00,30.1,26.7,29.77,North,9,7.0,10.0,87,0.00,,,0.00,0,Wunderground v.1.15,2013-02-11 01:49:00,
2013-02-10 20:51:00,30.1,27.0,29.77,NW,325,7.0,12.0,88,0.00,,,0.00,0,Wunderground v.1.15,2013-02-11 01:51:00,
2013-02-10 20:54:00,30.0,26.9,29.77,North,355,6.0,12.0,88,0.00,,,0.00,0,Wunderground v.1.15,2013-02-11 01:54:00,
2013-02-10 20:55:00,30.1,27.0,29.77,SW,232,6.0,12.0,88,0.00,,,0.00,0,Wunderground v.1.15,2013-02-11 01:55:00,
2013-02-10 20:58:00,30.0,26.9,29.76,NNW,346,6.0,12.0,88,0.00,,,0.00,0,Wunderground v.1.15,2013-02-11 01:58:00,
2013-02-10 20:59:00,30.0,26.9,29.76,NE,40,6.0,12.0,88,0.00,,,0.00,0,Wunderground v.1.15,2013-02-11 01:59:00,
2013-02-10 21:02:00,30.0,27.2,29.76,NNW,340,6.0,8.0,89,0.00,,,0.00,0,Wunderground v.1.15,2013-02-11 02:02:00,
2013-02-10 21:05:00,30.0,27.2,29.76,North,349,7.0,8.0,89,0.00,,,0.00,0,Wunderground v.1.15,2013-02-11 02:05:00,
2013-02-10 21:06:00,29.9,27.1,29.76,North,5,7.0,8.0,89,0.00,,,0.00,0,Wunderground v.1.15,2013-02-11 02:06:00,
2013-02-10 21:07:00,29.9,27.1,29.76,North,355,7.0,8.0,89,0.00,,,0.00,0,Wunderground v.1.15,2013-02-11 02:07:00,
2013-02-10 21:12:00,29.9,27.3,29.75,North,355,7.0,12.0,90,0.00,,,0.00,0,Wunderground v.1.15,2013-02-11 02:12:00,
2013-02-10 21:13:00,29.8,27.2,29.75,NNE,22,7.0,12.0,90,0.00,,,0.00,0,Wunderground v.1.15,2013-02-11 02:13:00,
2013-02-10 21:16:00,29.8,27.2,29.75,North,10,8.0,12.0,90,0.00,,,0.00,0,Wunderground v.1.15,2013-02-11 02:16:00,
2013-02-10 21:19:00,29.7,27.4,29.75,NNE,15,7.0,12.0,91,0.00,,,0.00,0,Wunderground v.1.15,2013-02-11 02:19:00,
2013-02-10 21:21:00,29.7,27.4,29.75,NNE,15,7.0,7.0,91,0.00,,,0.00,0,Wunderground v.1.15,2013-02-11 02:21:00,
2013-02-10 21:22:00,29.7,27.4,29.75,North,9,7.0,7.0,91,0.00,,,0.00,0,Wunderground v.1.15,2013-02-11 02:22:00,
2013-02-10 21:25:00,29.7,27.7,29.75,North,350,7.0,10.0,92,0.00,,,0.00,0,Wunderground v.1.15,2013-02-11 02:25:00,
2013-02-10 21:28:00,29.6,27.6,29.75,North,355,6.0,10.0,92,0.00,,,0.00,0,Wunderground v.1.15,2013-02-11 02:28:00,
2013-02-10 21:30:00,29.6,27.6,29.74,NNE,13,6.0,7.0,92,0.00,,,0.00,0,Wunderground v.1.15,2013-02-11 02:30:00,
2013-02-10 21:31:00,29.6,27.6,29.75,NNE,16,6.0,7.0,92,0.00,,,0.00,0,Wunderground v.1.15,2013-02-11 02:31:00,
2013-02-10 21:32:00,29.6,27.6,29.75,North,5,6.0,7.0,92,0.00,,,0.00,0,Wunderground v.1.15,2013-02-11 02:32:00,
2013-02-10 21:37:00,29.6,27.8,29.74,North,9,7.0,13.0,93,0.00,,,0.00,0,Wunderground v.1.15,2013-02-11 02:37:00,
2013-02-10 21:38:00,29.6,27.8,29.74,North,351,7.0,13.0,93,0.00,,,0.00,0,Wunderground v.1.15,2013-02-11 02:38:00,
2013-02-10 21:41:00,29.7,27.9,29.73,North,5,7.0,7.0,93,0.00,,,0.00,0,Wunderground v.1.15,2013-02-11 02:41:00,
2013-02-10 21:44:00,29.7,27.9,29.73,NNE,21,6.0,7.0,93,0.00,,,0.00,0,Wunderground v.1.15,2013-02-11 02:44:00,
2013-02-10 21:46:00,29.7,27.9,29.73,NNE,15,6.0,7.0,93,0.00,,,0.00,0,Wunderground v.1.15,2013-02-11 02:46:00,
2013-02-10 21:47:00,29.7,27.9,29.73,North,11,6.0,7.0,93,0.00,,,0.00,0,Wunderground v.1.15,2013-02-11 02:47:00,
2013-02-10 21:48:00,29.7,27.9,29.72,North,360,6.0,9.0,93,0.00,,,0.00,0,Wunderground v.1.15,2013-02-11 02:48:00,
2013-02-10 21:50:00,29.7,27.9,29.72,NNE,15,6.0,6.0,93,0.00,,,0.00,0,Wunderground v.1.15,2013-02-11 02:50:00,
2013-02-10 21:53:00,29.7,27.9,29.72,NNE,18,6.0,8.0,93,0.00,,,0.00,0,Wunderground v.1.15,2013-02-11 02:53:00,
2013-02-10 21:54:00,29.7,27.9,29.72,North,355,6.0,8.0,93,0.00,,,0.00,0,Wunderground v.1.15,2013-02-11 02:54:00,
2013-02-10 21:59:00,29.8,28.0,29.71,North,355,6.0,12.0,93,0.00,,,0.00,0,Wunderground v.1.15,2013-02-11 02:59:00,
2013-02-10 22:00:00,29.8,28.0,29.71,NW,315,6.0,7.0,93,0.00,,,0.00,0,Wunderground v.1.15,2013-02-11 03:00:00,
2013-02-10 22:04:00,29.8,28.0,29.71,North,9,6.0,8.0,93,0.00,,,0.00,0,Wunderground v.1.15,2013-02-11 03:04:00,
2013-02-10 22:05:00,29.8,28.0,29.71,NNW,348,7.0,8.0,93,0.00,,,0.00,0,Wunderground v.1.15,2013-02-11 03:05:00,
2013-02-10 22:08:00,29.8,28.0,29.71,North,11,7.0,8.0,93,0.00,,,0.00,0,Wunderground v.1.15,2013-02-11 03:08:00,
2013-02-10 22:10:00,29.8,28.3,29.71,NNW,339,6.0,8.0,94,0.00,,,0.00,0,Wunderground v.1.15,2013-02-11 03:10:00,
2013-02-10 22:12:00,29.8,28.3,29.71,NNE,28,6.0,8.0,94,0.00,,,0.00,0,Wunderground v.1.15,2013-02-11 03:12:00,
2013-02-10 22:15:00,29.8,28.3,29.70,North,11,6.0,8.0,94,0.00,,,0.00,0,Wunderground v.1.15,2013-02-11 03:15:00,
2013-02-10 22:17:00,29.8,28.3,29.70,NNW,344,5.0,8.0,94,0.00,,,0.00,0,Wunderground v.1.15,2013-02-11 03:17:00,
2013-02-10 22:20:00,29.8,28.3,29.70,North,360,5.0,6.0,94,0.00,,,0.00,0,Wunderground v.1.15,2013-02-11 03:20:00,
2013-02-10 22:22:00,29.8,28.3,29.70,NNE,15,5.0,6.0,94,0.00,,,0.00,0,Wunderground v.1.15,2013-02-11 03:22:00,
2013-02-10 22:23:00,29.8,28.3,29.70,North,5,5.0,7.0,94,0.00,,,0.00,0,Wunderground v.1.15,2013-02-11 03:23:00,
2013-02-10 22:27:00,29.8,28.3,29.69,North,360,5.0,7.0,94,0.00,,,0.00,0,Wunderground v.1.15,2013-02-11 03:27:00,
2013-02-10 22:28:00,29.8,28.3,29.69,North,360,5.0,7.0,94,0.00,,,0.00,0,Wunderground v.1.15,2013-02-11 03:28:00,
2013-02-10 22:29:00,29.8,28.3,29.69,North,11,5.0,7.0,94,0.00,,,0.00,0,Wunderground v.1.15,2013-02-11 03:29:00,
2013-02-10 22:31:00,29.8,28.3,29.69,NNW,344,5.0,9.0,94,0.00,,,0.00,0,Wunderground v.1.15,2013-02-11 03:31:00,
2013-02-10 22:35:00,29.8,28.3,29.68,North,10,5.0,9.0,94,0.00,,,0.00,0,Wunderground v.1.15,2013-02-11 03:35:00,
2013-02-10 22:36:00,29.9,28.4,29.68,NW,323,5.0,9.0,94,0.00,,,0.00,0,Wunderground v.1.15,2013-02-11 03:36:00,
2013-02-10 22:40:00,29.9,28.4,29.68,North,11,5.0,5.0,94,0.00,,,0.00,0,Wunderground v.1.15,2013-02-11 03:40:00,
2013-02-10 22:42:00,29.9,28.4,29.67,North,360,5.0,6.0,94,0.00,,,0.00,0,Wunderground v.1.15,2013-02-11 03:42:00,
2013-02-10 22:45:00,29.9,28.4,29.67,North,11,5.0,10.0,94,0.00,,,0.00,0,Wunderground v.1.15,2013-02-11 03:45:00,
2013-02-10 22:46:00,29.9,28.4,29.67,North,355,5.0,10.0,94,0.00,,,0.00,0,Wunderground v.1.15,2013-02-11 03:46:00,
2013-02-10 22:49:00,29.9,28.6,29.67,North,5,5.0,10.0,95,0.00,,,0.00,0,Wunderground v.1.15,2013-02-11 03:49:00,
2013-02-10 22:55:00,30.0,28.7,29.66,NNW,330,5.0,6.0,95,0.00,,,0.00,0,Wunderground v.1.15,2013-02-11 03:55:00,
2013-02-10 22:56:00,30.1,28.8,29.66,North,5,5.0,6.0,95,0.00,,,0.00,0,Wunderground v.1.15,2013-02-11 03:56:00,
2013-02-10 22:57:00,30.1,28.8,29.66,North,360,5.0,6.0,95,0.00,,,0.00,0,Wunderground v.1.15,2013-02-11 03:57:00,
2013-02-10 23:00:00,30.1,28.8,29.66,North,9,5.0,5.0,95,0.00,,,0.00,0,Wunderground v.1.15,2013-02-11 04:00:00,
2013-02-10 23:04:00,30.2,28.9,29.66,North,355,5.0,7.0,95,0.00,,,0.00,0,Wunderground v.1.15,2013-02-11 04:04:00,
2013-02-10 23:08:00,30.2,28.9,29.66,NNE,13,5.0,7.0,95,0.00,,,0.00,0,Wunderground v.1.15,2013-02-11 04:08:00,
2013-02-10 23:09:00,30.2,28.9,29.66,NNE,15,5.0,7.0,95,0.00,,,0.00,0,Wunderground v.1.15,2013-02-11 04:09:00,
2013-02-10 23:11:00,30.3,29.0,29.65,NW,326,5.0,12.0,95,0.00,,,0.00,0,Wunderground v.1.15,2013-02-11 04:11:00,
2013-02-10 23:14:00,30.3,29.0,29.65,NNE,15,6.0,12.0,95,0.00,,,0.00,0,Wunderground v.1.15,2013-02-11 04:14:00,
2013-02-10 23:15:00,30.3,29.0,29.65,NNW,341,6.0,12.0,95,0.00,,,0.00,0,Wunderground v.1.15,2013-02-11 04:15:00,
2013-02-10 23:20:00,30.4,29.1,29.66,North,355,5.0,7.0,95,0.00,,,0.00,0,Wunderground v.1.15,2013-02-11 04:20:00,
2013-02-10 23:21:00,30.4,29.1,29.66,North,355,5.0,7.0,95,0.00,,,0.00,0,Wunderground v.1.15,2013-02-11 04:21:00,
2013-02-10 23:23:00,30.4,29.1,29.65,ESE,105,4.0,7.0,95,0.00,,,0.00,0,Wunderground v.1.15,2013-02-11 04:23:00,
2013-02-10 23:25:00,30.5,29.2,29.65,NNE,17,3.0,7.0,95,0.00,,,0.00,0,Wunderground v.1.15,2013-02-11 04:25:00,
2013-02-10 23:26:00,30.4,29.1,29.65,NNW,336,3.0,7.0,95,0.00,,,0.00,0,Wunderground v.1.15,2013-02-11 04:26:00,
2013-02-10 23:28:00,30.5,29.2,29.65,East,89,3.0,7.0,95,0.00,,,0.00,0,Wunderground v.1.15,2013-02-11 04:28:00,
2013-02-10 23:32:00,30.5,29.2,29.65,North,355,4.0,6.0,95,0.00,,,0.00,0,Wunderground v.1.15,2013-02-11 04:32:00,
2013-02-10 23:33:00,30.5,29.2,29.65,North,349,4.0,6.0,95,0.00,,,0.00,0,Wunderground v.1.15,2013-02-11 04:33:00,
2013-02-10 23:37:00,30.6,29.3,29.65,North,355,3.0,6.0,95,0.00,,,0.00,0,Wunderground v.1.15,2013-02-11 04:37:00,
2013-02-10 23:38:00,30.6,29.6,29.65,NW,304,3.0,6.0,96,0.00,,,0.00,0,Wunderground v.1.15,2013-02-11 04:38:00,
2013-02-10 23:41:00,30.6,29.6,29.65,North,5,3.0,10.0,96,0.00,,,0.00,0,Wunderground v.1.15,2013-02-11 04:41:00,
2013-02-10 23:42:00,30.6,29.6,29.64,NNW,348,3.0,10.0,96,0.00,,,0.00,0,Wunderground v.1.15,2013-02-11 04:42:00,
2013-02-10 23:44:00,30.7,29.7,29.64,NNE,17,3.0,10.0,96,0.00,,,0.00,0,Wunderground v.1.15,2013-02-11 04:44:00,
2013-02-10 23:47:00,30.7,29.7,29.63,North,355,4.0,10.0,96,0.00,,,0.00,0,Wunderground v.1.15,2013-02-11 04:47:00,
2013-02-10 23:48:00,30.7,29.7,29.64,NNW,344,4.0,10.0,96,0.00,,,0.00,0,Wunderground v.1.15,2013-02-11 04:48:00,
2013-02-10 23:50:00,30.7,29.7,29.63,North,355,5.0,5.0,96,0.00,,,0.00,0,Wunderground v.1.15,2013-02-11 04:50:00,
2013-02-10 23:52:00,30.7,29.7,29.64,North,5,4.0,6.0,96,0.00,,,0.00,0,Wunderground v.1.15,2013-02-11 04:52:00,
2013-02-10 23:53:00,30.7,29.7,29.64,NNW,331,4.0,6.0,96,0.00,,,0.00,0,Wunderground v.1.15,2013-02-11 04:53:00,
2013-02-10 23:54:00,30.7,29.7,29.63,NNE,25,4.0,6.0,96,0.00,,,0.00,0,Wunderground v.1.15,2013-02-11 04:54:00,
2013-02-10 23:58:00,30.8,29.8,29.63,NE,42,3.0,6.0,96,0.00,,,0.00,0,Wunderground v.1.15,2013-02-11 04:58:00,